M I D A S
Marine Information and Data Acquisition System
Tripno 1137 of the Zeeleeuw from 2006-07-18 07:02:39 to 2006-07-18 11:51:59
Back to CruiseResearch ActivitiesStationsMapUnderway DataData graphs

EquipmentUnitsComment
TimeDGPSUTC
LatitudeDGPSDM.mWGS84
LongitudeDGPSDM.mWGS84
TemperatureSBE03/SBE38deg celciusITS90
ConductivitySBE21S/mITS90
SalinitySBE21 Practical Salinity Units
ChlorophylAChelsea fluorimeterg/lCalibrated in Aceton
Missing or incorrect values are displayed as -999
Sea surface data collected by the RV Zeeleeuw from 2006-07-18 07:03:06 to 2006-07-18 12:03:19
                                                                                    Next 1000 lines
Time Latitude Longitude Temperature Conductivity Salinity ChlorophylA
2006-07-18 07:03:18 51°13.599 2°56.097 23.7435 0.009236 0.047454 10.443982
2006-07-18 07:03:23 51°13.599 2°56.094 23.7657 0.009236 0.047454 10.443982
2006-07-18 07:03:28 51°13.6 2°56.091 23.7588 0.009236 0.047454 10.443982
2006-07-18 07:03:33 51°13.6 2°56.086 23.769 0.009236 0.047454 10.477691
2006-07-18 07:03:37 51°13.601 2°56.082 23.7737 0.009236 0.047454 10.477691
2006-07-18 07:03:43 51°13.602 2°56.075 23.7835 0.009236 0.047453 10.477691
2006-07-18 07:03:49 51°13.603 2°56.067 23.7816 0.009236 0.047453 10.477691
2006-07-18 07:03:53 51°13.604 2°56.061 23.7928 0.009236 0.047453 10.477691
2006-07-18 07:03:59 51°13.606 2°56.052 23.7885 0.009236 0.047453 10.477691
2006-07-18 07:04:04 51°13.607 2°56.045 23.7843 0.009236 0.047452 10.443982
2006-07-18 07:04:09 51°13.609 2°56.036 23.7884 0.009236 0.047452 10.443982
2006-07-18 07:04:13 51°13.611 2°56.03 23.7984 0.009236 0.047452 10.477691
2006-07-18 07:04:19 51°13.613 2°56.019 23.8009 0.009236 0.047452 10.443982
2006-07-18 07:04:24 51°13.616 2°56.01 23.805 0.009236 0.047452 10.477691
2006-07-18 07:04:29 51°13.618 2°56.001 23.7991 0.009236 0.047452 10.443982
2006-07-18 07:04:33 51°13.62 2°55.994 23.7966 0.009236 0.047452 10.443982
2006-07-18 07:04:39 51°13.623 2°55.983 23.8003 0.009236 0.047452 10.443982
2006-07-18 07:04:44 51°13.626 2°55.973 23.8055 0.009236 0.047452 10.477691
2006-07-18 07:04:49 51°13.629 2°55.963 23.8067 0.009236 0.047452 10.477691
2006-07-18 07:04:54 51°13.632 2°55.953 23.8041 0.009236 0.047452 10.443982
2006-07-18 07:04:59 51°13.635 2°55.943 23.7991 0.009236 0.047451 10.477691
2006-07-18 07:05:04 51°13.638 2°55.932 23.8013 0.009236 0.047451 10.443982
2006-07-18 07:05:09 51°13.641 2°55.922 23.8016 0.009236 0.047451 10.443982
2006-07-18 07:05:13 51°13.644 2°55.914 23.8031 0.009236 0.047451 10.477691
2006-07-18 07:05:19 51°13.648 2°55.901 23.8058 0.009236 0.047451 10.477691
2006-07-18 07:05:24 51°13.651 2°55.89 23.8072 0.009236 0.047451 10.477691
2006-07-18 07:05:29 51°13.655 2°55.88 23.8137 0.009236 0.047451 10.443982
2006-07-18 07:05:34 51°13.658 2°55.869 23.8138 0.009236 0.047451 10.477691
2006-07-18 07:05:39 51°13.662 2°55.859 23.8163 0.009236 0.047451 10.477691
2006-07-18 07:05:44 51°13.665 2°55.849 23.812 0.009236 0.04745 10.477691
2006-07-18 07:05:49 51°13.669 2°55.839 23.8108 0.009236 0.047451 10.443982
2006-07-18 07:05:53 51°13.672 2°55.831 23.8205 0.009236 0.047451 10.477691
2006-07-18 07:05:59 51°13.676 2°55.819 23.8154 0.009236 0.04745 10.443982
2006-07-18 07:06:04 51°13.679 2°55.81 23.8157 0.009236 0.04745 10.443982
2006-07-18 07:06:09 51°13.681 2°55.8 23.8277 0.009236 0.04745 10.443982
2006-07-18 07:06:13 51°13.683 2°55.793 23.8308 0.009236 0.04745 10.477691
2006-07-18 07:06:19 51°13.686 2°55.783 23.8236 0.009236 0.04745 10.443982
2006-07-18 07:06:23 51°13.688 2°55.777 23.8196 0.009236 0.04745 10.477691
2006-07-18 07:06:29 51°13.691 2°55.767 23.8123 0.009236 0.047449 10.443982
2006-07-18 07:06:33 51°13.692 2°55.761 23.8128 0.009236 0.047449 10.443982
2006-07-18 07:06:37 51°13.694 2°55.755 23.8054 0.009236 0.047449 10.443982
2006-07-18 07:06:42 51°13.695 2°55.748 23.8132 0.009236 0.047449 10.477691
2006-07-18 07:06:48 51°13.697 2°55.74 23.8013 0.009236 0.047449 10.443982
2006-07-18 07:06:53 51°13.698 2°55.734 23.805 0.009236 0.047448 10.443982
2006-07-18 07:06:56 51°13.699 2°55.731 23.8192 0.009236 0.047449 10.477691
2006-07-18 07:07:03 51°13.701 2°55.724 23.8281 0.009236 0.047449 10.477691
2006-07-18 07:07:07 51°13.701 2°55.72 23.8283 0.009236 0.047449 10.477691
2006-07-18 07:07:12 51°13.701 2°55.716 23.8247 0.009236 0.047449 10.443982
2006-07-18 07:07:17 51°13.702 2°55.713 23.8224 0.009236 0.047449 10.477691
2006-07-18 07:07:22 51°13.702 2°55.71 23.819 0.009236 0.047448 10.477691
2006-07-18 07:07:29 51°13.703 2°55.707 23.8413 0.009236 0.047448 10.443982
2006-07-18 07:07:33 51°13.703 2°55.706 23.8306 0.009236 0.047448 10.477691
2006-07-18 07:07:39 51°13.704 2°55.705 23.8358 0.009236 0.047448 10.477691
2006-07-18 07:07:43 51°13.704 2°55.704 23.8313 0.009236 0.047448 10.477691
2006-07-18 07:07:48 51°13.704 2°55.704 23.8354 0.009236 0.047448 10.443982
2006-07-18 07:07:53 51°13.705 2°55.705 23.8373 0.009236 0.047448 10.443982
2006-07-18 07:07:58 51°13.706 2°55.706 23.8384 0.009236 0.047448 10.477691
2006-07-18 07:08:03 51°13.706 2°55.706 23.8354 0.009236 0.047447 10.443982
2006-07-18 07:08:08 51°13.707 2°55.708 23.8354 0.009236 0.047447 10.443982
2006-07-18 07:08:13 51°13.708 2°55.709 23.842 0.009236 0.047448 10.443982
2006-07-18 07:08:18 51°13.71 2°55.709 23.8572 0.009236 0.047447 10.443982
2006-07-18 07:08:23 51°13.711 2°55.711 23.8702 0.009236 0.047447 10.443982
2006-07-18 07:08:28 51°13.713 2°55.712 23.8772 0.009236 0.047447 10.477691
2006-07-18 07:08:32 51°13.714 2°55.713 23.8773 0.009236 0.047447 10.477691
2006-07-18 07:08:37 51°13.717 2°55.714 23.8827 0.009236 0.047447 10.443982
2006-07-18 07:08:41 51°13.719 2°55.715 23.8817 0.009236 0.047447 10.443982
2006-07-18 07:08:48 51°13.724 2°55.716 23.8834 0.009236 0.047446 10.443982
2006-07-18 07:08:52 51°13.727 2°55.716 23.8889 0.009236 0.047447 10.443982
2006-07-18 07:08:58 51°13.733 2°55.715 23.8856 0.009236 0.047447 10.477691
2006-07-18 07:09:03 51°13.737 2°55.713 23.8825 0.009236 0.047447 10.477691
2006-07-18 07:09:08 51°13.743 2°55.711 23.8811 0.009236 0.047447 10.477691
2006-07-18 07:09:13 51°13.748 2°55.707 23.8414 0.009236 0.047446 10.477691
2006-07-18 07:09:18 51°13.754 2°55.703 23.8306 0.009236 0.047446 10.477691
2006-07-18 07:09:23 51°13.759 2°55.698 23.8182 0.009236 0.047446 10.443982
2006-07-18 07:09:28 51°13.766 2°55.692 23.8138 0.009236 0.047446 10.443982
2006-07-18 07:09:33 51°13.772 2°55.687 23.7896 0.009236 0.047446 10.443982
2006-07-18 07:09:36 51°13.776 2°55.683 23.7875 0.009236 0.047446 10.443982
2006-07-18 07:09:42 51°13.784 2°55.676 23.7862 0.009236 0.047446 10.477691
2006-07-18 07:09:48 51°13.793 2°55.669 23.7831 0.009236 0.047446 10.477691
2006-07-18 07:09:53 51°13.801 2°55.663 23.7775 0.009236 0.047446 10.443982
2006-07-18 07:09:57 51°13.807 2°55.658 23.787 0.009236 0.047445 10.443982
2006-07-18 07:10:01 51°13.813 2°55.653 23.7844 0.009236 0.047445 10.443982
2006-07-18 07:10:08 51°13.824 2°55.643 23.7865 0.009236 0.047445 10.443982
2006-07-18 07:10:13 51°13.832 2°55.637 23.7831 0.009236 0.047445 10.443982
2006-07-18 07:10:17 51°13.839 2°55.632 23.7827 0.009236 0.047446 10.443982
2006-07-18 07:10:23 51°13.849 2°55.624 23.783 0.009236 0.047445 10.477691
2006-07-18 07:10:28 51°13.858 2°55.617 23.7845 0.009236 0.047445 10.443982
2006-07-18 07:10:32 51°13.865 2°55.612 23.7852 0.009236 0.047445 10.477691
2006-07-18 07:10:36 51°13.872 2°55.606 23.7868 0.009236 0.047445 10.477691
2006-07-18 07:10:43 51°13.884 2°55.597 23.7881 0.009236 0.047445 10.477691
2006-07-18 07:10:47 51°13.891 2°55.592 23.7854 0.009236 0.047445 10.443982
2006-07-18 07:10:53 51°13.902 2°55.583 23.7858 0.009236 0.047445 10.477691
2006-07-18 07:10:58 51°13.911 2°55.576 23.7894 0.009236 0.047445 10.477691
2006-07-18 07:11:03 51°13.92 2°55.569 23.792 0.009236 0.047445 10.443982
2006-07-18 07:11:08 51°13.929 2°55.562 23.794 0.009236 0.047445 10.443982
2006-07-18 07:11:13 51°13.938 2°55.555 23.7832 0.009236 0.047445 10.477691
2006-07-18 07:11:18 51°13.947 2°55.548 23.7941 0.009236 0.047445 10.477691
2006-07-18 07:11:23 51°13.956 2°55.541 23.8008 0.009236 0.047445 10.443982
2006-07-18 07:11:28 51°13.966 2°55.534 23.8073 0.009236 0.047445 10.443982
2006-07-18 07:11:32 51°13.973 2°55.529 23.8135 0.009236 0.047445 10.443982
2006-07-18 07:11:37 51°13.983 2°55.522 23.8199 0.009236 0.047444 10.443982
2006-07-18 07:11:41 51°13.99 2°55.517 23.8223 0.009236 0.047445 10.443982
2006-07-18 07:11:48 51°14.003 2°55.507 23.8218 0.009236 0.047445 10.443982
2006-07-18 07:11:53 51°14.012 2°55.5 23.8213 0.009236 0.047445 10.443982
2006-07-18 07:11:57 51°14.019 2°55.495 23.8319 0.009236 0.047445 10.443982
2006-07-18 07:12:02 51°14.027 2°55.489 23.8359 0.009236 0.047445 10.443982
2006-07-18 07:12:07 51°14.036 2°55.483 23.8393 0.009236 0.047445 10.443982
2006-07-18 07:12:13 51°14.046 2°55.476 23.858 0.009236 0.047445 10.477691
2006-07-18 07:12:17 51°14.052 2°55.472 23.8862 0.009236 0.047445 10.477691
2006-07-18 07:12:20 51°14.057 2°55.469 23.896 0.009236 0.047445 10.443982
2006-07-18 07:12:28 51°14.07 2°55.46 23.8988 0.009236 0.047445 10.443982
2006-07-18 07:12:33 51°14.078 2°55.454 23.8927 0.009236 0.047445 10.477691
2006-07-18 07:12:38 51°14.086 2°55.449 23.8922 0.009236 0.047445 10.477691
2006-07-18 07:12:43 51°14.094 2°55.443 23.8964 0.009236 0.047445 10.477691
2006-07-18 07:12:48 51°14.102 2°55.437 23.8963 0.009236 0.047445 10.443982
2006-07-18 07:12:53 51°14.11 2°55.431 23.8981 0.009236 0.047445 10.477691
2006-07-18 07:12:56 51°14.114 2°55.427 23.9003 0.009236 0.047445 10.443982
2006-07-18 07:13:02 51°14.124 2°55.42 23.9085 0.009236 0.047445 10.443982
2006-07-18 07:13:08 51°14.134 2°55.412 23.907 0.009236 0.047445 10.443982
2006-07-18 07:13:13 51°14.142 2°55.405 23.9074 0.009236 0.047445 10.477691
2006-07-18 07:13:17 51°14.148 2°55.399 23.905 0.009236 0.047445 10.443982
2006-07-18 07:13:23 51°14.158 2°55.389 23.9043 0.009236 0.047445 10.443982
2006-07-18 07:13:28 51°14.166 2°55.382 23.9038 0.009236 0.047445 10.443982
2006-07-18 07:13:33 51°14.174 2°55.373 23.9075 0.009236 0.047445 10.443982
2006-07-18 07:13:38 51°14.182 2°55.365 23.9055 0.009236 0.047446 10.477691
2006-07-18 07:13:43 51°14.19 2°55.356 23.8987 0.009236 0.047446 10.443982
2006-07-18 07:13:48 51°14.198 2°55.346 23.9131 0.009236 0.047446 10.443982
2006-07-18 07:13:53 51°14.206 2°55.337 23.9147 0.009236 0.047446 10.443982
2006-07-18 07:13:58 51°14.214 2°55.327 23.9269 0.009236 0.047446 10.443982
2006-07-18 07:14:03 51°14.222 2°55.316 23.9088 0.009236 0.047446 10.443982
2006-07-18 07:14:07 51°14.229 2°55.307 23.8992 0.009236 0.047446 10.443982
2006-07-18 07:14:12 51°14.237 2°55.295 23.895 0.009236 0.047446 10.443982
2006-07-18 07:14:17 51°14.246 2°55.282 23.8848 0.009236 0.047446 10.443982
2006-07-18 07:14:20 51°14.251 2°55.274 23.8813 0.009236 0.047446 10.443982
2006-07-18 07:14:28 51°14.265 2°55.251 23.8974 0.009236 0.047446 10.443982
2006-07-18 07:14:32 51°14.272 2°55.24 23.8941 0.009236 0.047446 10.443982
2006-07-18 07:14:37 51°14.281 2°55.225 23.8655 0.009236 0.047446 10.443982
2006-07-18 07:14:42 51°14.289 2°55.209 23.8575 0.009236 0.047446 10.477691
2006-07-18 07:14:48 51°14.3 2°55.191 23.8749 0.009236 0.047447 10.443982
2006-07-18 07:14:53 51°14.308 2°55.175 23.8644 0.009236 0.047447 10.443982
2006-07-18 07:14:57 51°14.315 2°55.162 23.8611 0.009236 0.047447 10.477691
2006-07-18 07:15:03 51°14.325 2°55.142 23.8972 0.009236 0.047447 10.477691
2006-07-18 07:15:08 51°14.334 2°55.125 23.9066 0.009236 0.047447 10.410272
2006-07-18 07:15:12 51°14.34 2°55.111 23.9083 0.009236 0.047448 10.443982
2006-07-18 07:15:17 51°14.349 2°55.094 23.9072 0.009236 0.047448 10.477691
2006-07-18 07:15:22 51°14.357 2°55.077 23.8415 0.009236 0.047448 10.443982
2006-07-18 07:15:27 51°14.364 2°55.059 23.8046 0.009236 0.047448 10.443982
2006-07-18 07:15:32 51°14.372 2°55.041 23.8605 0.009236 0.047448 10.443982
2006-07-18 07:15:36 51°14.379 2°55.027 23.8175 0.009236 0.047448 10.477691
2006-07-18 07:15:42 51°14.389 2°55.007 23.8882 0.009236 0.047448 10.477691
2006-07-18 07:15:48 51°14.399 2°54.987 23.8782 0.009236 0.047448 10.477691
2006-07-18 07:15:53 51°14.408 2°54.971 23.9004 0.009236 0.047448 10.443982
2006-07-18 07:15:57 51°14.415 2°54.957 23.9192 0.009236 0.047448 10.477691
2006-07-18 07:16:00 51°14.421 2°54.948 23.9037 0.009236 0.047449 10.477691
2006-07-18 07:16:08 51°14.434 2°54.922 23.8891 0.009236 0.047449 10.477691
2006-07-18 07:16:13 51°14.442 2°54.905 23.8476 0.009236 0.047449 10.477691
2006-07-18 07:16:18 51°14.45 2°54.888 23.8722 0.009236 0.047449 10.443982
2006-07-18 07:16:23 51°14.458 2°54.87 23.8656 0.009236 0.047449 10.477691
2006-07-18 07:16:28 51°14.466 2°54.853 23.8799 0.009236 0.04745 10.410272
2006-07-18 07:16:33 51°14.475 2°54.836 23.9228 0.009236 0.04745 10.443982
2006-07-18 07:16:37 51°14.481 2°54.822 23.928 0.009236 0.04745 10.443982
2006-07-18 07:16:42 51°14.488 2°54.804 23.9113 0.009236 0.047451 10.443982
2006-07-18 07:16:47 51°14.496 2°54.786 23.9077 0.009236 0.047451 10.443982
2006-07-18 07:16:53 51°14.505 2°54.763 23.9127 0.009236 0.047451 10.443982
2006-07-18 07:16:57 51°14.51 2°54.747 23.8418 0.009236 0.047452 10.477691
2006-07-18 07:17:03 51°14.518 2°54.723 23.9159 0.009236 0.047452 10.477691
2006-07-18 07:17:07 51°14.524 2°54.706 23.8758 0.009236 0.047452 10.410272
2006-07-18 07:17:12 51°14.53 2°54.685 23.9221 0.009236 0.047452 10.443982
2006-07-18 07:17:18 51°14.538 2°54.66 23.8672 0.009236 0.047452 10.443982
2006-07-18 07:17:23 51°14.544 2°54.638 23.7756 0.009236 0.047453 10.443982
2006-07-18 07:17:27 51°14.549 2°54.62 23.8035 0.009236 0.047453 10.410272
2006-07-18 07:17:33 51°14.558 2°54.594 23.8365 0.009236 0.047453 10.410272
2006-07-18 07:17:37 51°14.563 2°54.576 23.8234 0.009236 0.047453 10.443982
2006-07-18 07:17:43 51°14.572 2°54.549 23.8295 0.009236 0.047454 10.443982
2006-07-18 07:17:47 51°14.578 2°54.532 23.8434 0.009236 0.047454 10.443982
2006-07-18 07:17:52 51°14.585 2°54.509 23.8332 0.009236 0.047455 10.410272
2006-07-18 07:17:57 51°14.593 2°54.487 23.8238 0.009236 0.047455 10.477691
2006-07-18 07:18:02 51°14.601 2°54.465 23.8258 0.009236 0.047455 10.443982
2006-07-18 07:18:08 51°14.61 2°54.438 23.8604 0.009236 0.047455 10.443982
2006-07-18 07:18:13 51°14.618 2°54.415 23.8146 0.009236 0.047456 10.443982
2006-07-18 07:18:17 51°14.625 2°54.397 23.8325 0.009236 0.047456 10.443982
2006-07-18 07:18:23 51°14.635 2°54.371 23.8884 0.009236 0.047456 10.443982
2006-07-18 07:18:28 51°14.644 2°54.349 23.8771 0.009236 0.047457 10.443982
2006-07-18 07:18:32 51°14.651 2°54.331 23.8412 0.009236 0.047457 10.443982
2006-07-18 07:18:37 51°14.66 2°54.309 23.8513 0.009236 0.047458 10.443982
2006-07-18 07:18:42 51°14.669 2°54.286 23.8496 0.009236 0.047458 10.477691
2006-07-18 07:18:48 51°14.679 2°54.26 23.8514 0.009236 0.047458 10.443982
2006-07-18 07:18:52 51°14.686 2°54.242 23.8408 0.009236 0.047459 10.443982
2006-07-18 07:18:56 51°14.694 2°54.225 23.8813 0.009236 0.04746 10.443982
2006-07-18 07:19:02 51°14.705 2°54.198 23.8789 0.009236 0.04746 10.443982
2006-07-18 07:19:07 51°14.713 2°54.176 23.9049 0.009236 0.04746 10.443982
2006-07-18 07:19:13 51°14.724 2°54.15 23.8521 0.009236 0.047461 10.443982
2006-07-18 07:19:18 51°14.733 2°54.128 23.8905 0.009236 0.047461 10.477691
2006-07-18 07:19:23 51°14.741 2°54.105 23.8673 0.009236 0.047462 10.443982
2006-07-18 07:19:28 51°14.75 2°54.083 23.8806 0.009236 0.047462 10.477691
2006-07-18 07:19:32 51°14.757 2°54.065 23.8802 0.009236 0.047462 10.477691
2006-07-18 07:19:38 51°14.767 2°54.038 23.8732 0.009236 0.047463 10.443982
2006-07-18 07:19:43 51°14.776 2°54.015 23.8804 0.009236 0.047463 10.443982
2006-07-18 07:19:46 51°14.782 2°54.002 23.8753 0.009236 0.047464 10.477691
2006-07-18 07:19:52 51°14.793 2°53.975 23.9038 0.009236 0.047465 10.443982
2006-07-18 07:19:57 51°14.802 2°53.952 23.9154 0.009236 0.047465 10.443982
2006-07-18 07:20:03 51°14.812 2°53.925 23.9001 0.009236 0.047466 10.443982
2006-07-18 07:20:08 51°14.821 2°53.902 23.9289 0.009236 0.047466 10.443982
2006-07-18 07:20:13 51°14.829 2°53.879 23.9296 0.009236 0.047467 10.443982
2006-07-18 07:20:17 51°14.836 2°53.861 23.9176 0.009236 0.047467 10.443982
2006-07-18 07:20:22 51°14.844 2°53.837 23.9138 0.009236 0.047468 10.443982
2006-07-18 07:20:26 51°14.849 2°53.818 23.9061 0.009236 0.047469 10.443982
2006-07-18 07:20:32 51°14.857 2°53.789 23.9016 0.009236 0.04747 10.410272
2006-07-18 07:20:37 51°14.864 2°53.765 23.8918 0.009236 0.04747 10.410272
2006-07-18 07:20:42 51°14.87 2°53.741 23.8568 0.009236 0.047471 10.443982
2006-07-18 07:20:47 51°14.877 2°53.716 23.8838 0.009236 0.047471 10.443982
2006-07-18 07:20:53 51°14.884 2°53.687 23.8779 0.009236 0.047472 10.443982
2006-07-18 07:20:56 51°14.888 2°53.673 23.8403 0.009236 0.047472 10.443982
2006-07-18 07:21:02 51°14.895 2°53.643 23.8587 0.009236 0.047472 10.443982
2006-07-18 07:21:06 51°14.9 2°53.624 23.862 0.009236 0.047473 10.477691
2006-07-18 07:21:13 51°14.91 2°53.59 23.8882 0.009236 0.047473 10.443982
2006-07-18 07:21:18 51°14.918 2°53.567 23.8796 0.009236 0.047474 10.443982
2006-07-18 07:21:23 51°14.926 2°53.543 23.9072 0.009236 0.047475 10.443982
2006-07-18 07:21:28 51°14.934 2°53.52 23.898 0.009236 0.047475 10.443982
2006-07-18 07:21:32 51°14.941 2°53.502 23.9147 0.009236 0.047477 10.443982
2006-07-18 07:21:38 51°14.952 2°53.474 23.8936 0.009236 0.047477 10.443982
2006-07-18 07:21:43 51°14.961 2°53.452 23.9158 0.009236 0.047477 10.443982
2006-07-18 07:21:48 51°14.97 2°53.429 23.9124 0.009236 0.047478 10.410272
2006-07-18 07:21:53 51°14.978 2°53.406 23.9409 0.009236 0.047479 10.443982
2006-07-18 07:21:57 51°14.985 2°53.388 23.9292 0.009236 0.047479 10.410272
2006-07-18 07:22:01 51°14.991 2°53.369 23.9209 0.009236 0.047481 10.410272
2006-07-18 07:22:07 51°15.001 2°53.341 23.9037 0.009236 0.047481 10.410272
2006-07-18 07:22:12 51°15.009 2°53.317 23.943 0.009236 0.047481 10.410272
2006-07-18 07:22:17 51°15.016 2°53.294 23.9342 0.009236 0.047482 10.410272
2006-07-18 07:22:20 51°15.021 2°53.279 23.9396 0.009236 0.047483 10.443982
2006-07-18 07:22:28 51°15.032 2°53.241 23.8979 0.009236 0.047484 10.410272
2006-07-18 07:22:33 51°15.039 2°53.217 23.8965 0.009236 0.047484 10.410272
2006-07-18 07:22:37 51°15.045 2°53.197 23.8856 0.009236 0.047484 10.443982
2006-07-18 07:22:42 51°15.052 2°53.173 23.8954 0.009236 0.047485 10.477691
2006-07-18 07:22:48 51°15.061 2°53.144 23.8855 0.009236 0.047485 10.443982
2006-07-18 07:22:53 51°15.069 2°53.12 23.8977 0.009236 0.047486 10.410272
2006-07-18 07:22:58 51°15.077 2°53.097 23.908 0.009236 0.047486 10.410272
2006-07-18 07:23:03 51°15.085 2°53.073 23.9355 0.009236 0.047487 10.443982
2006-07-18 07:23:08 51°15.094 2°53.05 23.9556 0.009236 0.047487 10.443982
2006-07-18 07:23:13 51°15.102 2°53.026 23.9336 0.009236 0.047488 10.443982
2006-07-18 07:23:17 51°15.108 2°53.007 23.9264 0.009236 0.047489 10.443982
2006-07-18 07:23:22 51°15.117 2°52.983 23.94 0.009236 0.04749 10.443982
2006-07-18 07:23:28 51°15.126 2°52.955 23.9216 0.009236 0.047491 10.410272
2006-07-18 07:23:33 51°15.134 2°52.931 23.9052 0.009236 0.047491 10.443982
2006-07-18 07:23:38 51°15.141 2°52.907 23.9189 0.009236 0.047491 10.443982
2006-07-18 07:23:43 51°15.148 2°52.883 23.9374 0.009236 0.047491 10.443982
2006-07-18 07:23:48 51°15.156 2°52.859 23.9279 0.009236 0.047493 10.410272
2006-07-18 07:23:52 51°15.161 2°52.839 23.9233 0.009236 0.047493 10.443982
2006-07-18 07:23:58 51°15.17 2°52.81 23.9194 0.009236 0.047494 10.443982
2006-07-18 07:24:02 51°15.176 2°52.791 23.9542 0.009236 0.047494 10.443982
2006-07-18 07:24:08 51°15.185 2°52.762 23.9441 0.009236 0.047494 10.443982
2006-07-18 07:24:13 51°15.192 2°52.738 23.9498 0.009236 0.047495 10.443982
2006-07-18 07:24:17 51°15.198 2°52.719 23.9595 0.009236 0.047496 10.410272
2006-07-18 07:24:20 51°15.202 2°52.704 23.9472 0.009236 0.047496 10.443982
2006-07-18 07:24:28 51°15.214 2°52.666 23.9325 0.009236 0.047497 10.410272
2006-07-18 07:24:33 51°15.222 2°52.642 23.9518 0.009236 0.047497 10.410272
2006-07-18 07:24:38 51°15.229 2°52.618 23.9458 0.009236 0.047497 10.443982
2006-07-18 07:24:43 51°15.237 2°52.595 23.9054 0.009236 0.047498 10.410272
2006-07-18 07:24:48 51°15.244 2°52.571 23.9466 0.009236 0.047499 10.443982
2006-07-18 07:24:53 51°15.252 2°52.547 23.9401 0.009236 0.047499 10.410272
2006-07-18 07:24:56 51°15.257 2°52.533 23.9524 0.009236 0.0475 10.443982
2006-07-18 07:25:02 51°15.266 2°52.504 23.9556 0.009236 0.047501 10.410272
2006-07-18 07:25:08 51°15.275 2°52.476 23.9542 0.009236 0.047501 10.410272
2006-07-18 07:25:13 51°15.283 2°52.452 23.9669 0.009236 0.047502 10.443982
2006-07-18 07:25:17 51°15.289 2°52.434 23.95 0.009236 0.047502 10.443982
2006-07-18 07:25:22 51°15.296 2°52.41 23.9777 0.009236 0.047503 10.443982
2006-07-18 07:25:28 51°15.305 2°52.381 23.9635 0.009236 0.047504 10.443982
2006-07-18 07:25:32 51°15.311 2°52.362 23.9472 0.009236 0.047504 10.443982
2006-07-18 07:25:36 51°15.317 2°52.343 23.9424 0.009236 0.047505 10.443982
2006-07-18 07:25:43 51°15.327 2°52.31 23.9636 0.009236 0.047505 10.410272
2006-07-18 07:25:48 51°15.335 2°52.286 23.9706 0.009236 0.047506 10.410272
2006-07-18 07:25:53 51°15.342 2°52.262 23.9631 0.009236 0.047507 10.410272
2006-07-18 07:25:58 51°15.35 2°52.238 23.971 0.009236 0.047508 10.410272
2006-07-18 07:26:03 51°15.357 2°52.215 23.9714 0.009236 0.047508 10.410272
2006-07-18 07:26:08 51°15.364 2°52.191 23.9898 0.009236 0.047508 10.443982
2006-07-18 07:26:13 51°15.371 2°52.167 23.9898 0.009236 0.047509 10.443982
2006-07-18 07:26:17 51°15.377 2°52.147 23.9774 0.009236 0.04751 10.410272
2006-07-18 07:26:22 51°15.383 2°52.123 23.9739 0.009236 0.047511 10.410272
2006-07-18 07:26:26 51°15.389 2°52.103 23.9549 0.009236 0.047511 10.443982
2006-07-18 07:26:32 51°15.396 2°52.074 23.9593 0.009236 0.047511 10.443982
2006-07-18 07:26:37 51°15.403 2°52.049 23.9775 0.009236 0.047512 10.410272
2006-07-18 07:26:43 51°15.411 2°52.02 23.9398 0.009236 0.047513 10.443982
2006-07-18 07:26:48 51°15.418 2°51.996 23.9468 0.009236 0.047514 10.410272
2006-07-18 07:26:52 51°15.423 2°51.977 23.9656 0.009236 0.047514 10.443982
2006-07-18 07:26:57 51°15.431 2°51.952 23.9771 0.009236 0.047515 10.443982
2006-07-18 07:27:02 51°15.438 2°51.928 23.9889 0.009236 0.047516 10.443982
2006-07-18 07:27:08 51°15.447 2°51.9 23.9935 0.009236 0.047516 10.443982
2006-07-18 07:27:12 51°15.452 2°51.88 23.9995 0.009236 0.047517 10.443982
2006-07-18 07:27:18 51°15.46 2°51.851 24.0006 0.009236 0.047517 10.443982
2006-07-18 07:27:23 51°15.466 2°51.827 24.0013 0.009236 0.047518 10.410272
2006-07-18 07:27:28 51°15.473 2°51.803 24.0171 0.009236 0.047519 10.443982
2006-07-18 07:27:33 51°15.479 2°51.778 24.0141 0.009236 0.047519 10.443982
2006-07-18 07:27:36 51°15.482 2°51.763 24.0018 0.009236 0.047519 10.443982
2006-07-18 07:27:43 51°15.489 2°51.729 23.9597 0.009236 0.047521 10.443982
2006-07-18 07:27:47 51°15.494 2°51.709 24.0004 0.009236 0.047521 10.443982
2006-07-18 07:27:53 51°15.5 2°51.679 23.9939 0.009236 0.047522 10.443982
2006-07-18 07:27:58 51°15.506 2°51.654 24.0077 0.009236 0.047522 10.443982
2006-07-18 07:28:03 51°15.511 2°51.63 23.9939 0.009236 0.047522 10.443982
2006-07-18 07:28:08 51°15.516 2°51.605 23.9819 0.009236 0.047523 10.443982
2006-07-18 07:28:13 51°15.522 2°51.58 23.9504 0.009236 0.047523 10.443982
2006-07-18 07:28:17 51°15.526 2°51.56 23.9425 0.009236 0.047524 10.443982
2006-07-18 07:28:22 51°15.532 2°51.536 23.9618 0.009236 0.047524 10.410272
2006-07-18 07:28:28 51°15.54 2°51.507 23.9925 0.009236 0.047525 10.477691
2006-07-18 07:28:33 51°15.546 2°51.482 23.9655 0.009236 0.047525 10.477691
2006-07-18 07:28:36 51°15.55 2°51.468 23.9839 0.009236 0.047526 10.443982
2006-07-18 07:28:43 51°15.56 2°51.434 23.9933 0.009236 0.047526 10.410272
2006-07-18 07:28:48 51°15.567 2°51.41 24.0015 0.009236 0.047527 10.410272
2006-07-18 07:28:52 51°15.573 2°51.39 24.0162 0.009236 0.047528 10.443982
2006-07-18 07:28:58 51°15.582 2°51.361 24.0252 0.009236 0.047529 10.443982
2006-07-18 07:29:03 51°15.589 2°51.337 24.0345 0.009236 0.047529 10.410272
2006-07-18 07:29:07 51°15.595 2°51.318 24.0053 0.009236 0.047529 10.410272
2006-07-18 07:29:13 51°15.603 2°51.289 24.007 0.009236 0.04753 10.443982
2006-07-18 07:29:17 51°15.609 2°51.27 24.0278 0.009236 0.04753 10.410272
2006-07-18 07:29:23 51°15.617 2°51.24 24.0206 0.009236 0.047531 10.443982
2006-07-18 07:29:28 51°15.624 2°51.216 24.0226 0.009236 0.047532 10.443982
2006-07-18 07:29:33 51°15.631 2°51.191 24.0207 0.009236 0.047532 10.443982
2006-07-18 07:29:38 51°15.638 2°51.167 24.0282 0.009236 0.047532 10.443982
2006-07-18 07:29:43 51°15.645 2°51.142 23.9998 0.009236 0.047533 10.443982
2006-07-18 07:29:48 51°15.652 2°51.118 23.9985 0.009236 0.047534 10.443982
2006-07-18 07:29:53 51°15.659 2°51.093 24.0086 0.009236 0.047534 10.410272
2006-07-18 07:29:57 51°15.664 2°51.074 24.0266 0.009236 0.047535 10.410272
2006-07-18 07:30:02 51°15.672 2°51.049 24.0324 0.009236 0.047535 10.410272
2006-07-18 07:30:07 51°15.679 2°51.025 24.017 0.009236 0.047535 10.443982
2006-07-18 07:30:12 51°15.686 2°51 24.029 0.009236 0.047536 10.410272
2006-07-18 07:30:18 51°15.694 2°50.971 24.0196 0.009236 0.047537 10.443982
2006-07-18 07:30:23 51°15.701 2°50.946 24.0448 0.009236 0.047537 10.443982
2006-07-18 07:30:26 51°15.705 2°50.932 24.0342 0.009236 0.047538 10.410272
2006-07-18 07:30:33 51°15.715 2°50.898 24.0312 0.009236 0.047539 10.443982
2006-07-18 07:30:38 51°15.722 2°50.873 24.0319 0.009236 0.047539 10.443982
2006-07-18 07:30:43 51°15.729 2°50.849 24.0386 0.009236 0.04754 10.443982
2006-07-18 07:30:48 51°15.736 2°50.824 24.0428 0.009236 0.04754 10.410272
2006-07-18 07:30:52 51°15.742 2°50.805 24.0267 0.009236 0.047541 10.410272
2006-07-18 07:30:58 51°15.75 2°50.775 24.0425 0.009236 0.047541 10.443982
2006-07-18 07:31:03 51°15.757 2°50.751 24.0331 0.009236 0.047542 10.443982
2006-07-18 07:31:08 51°15.765 2°50.727 24.0486 0.009236 0.047542 10.443982
2006-07-18 07:31:13 51°15.771 2°50.702 24.0462 0.009236 0.047542 10.443982
2006-07-18 07:31:17 51°15.777 2°50.683 24.0301 0.009236 0.047543 10.443982
2006-07-18 07:31:22 51°15.784 2°50.658 24.0234 0.009236 0.047544 10.443982
2006-07-18 07:31:28 51°15.792 2°50.629 24.0573 0.009236 0.047545 10.443982
2006-07-18 07:31:33 51°15.799 2°50.605 24.0352 0.009236 0.047545 10.443982
2006-07-18 07:31:36 51°15.803 2°50.59 24.0241 0.009236 0.047545 10.443982
2006-07-18 07:31:43 51°15.813 2°50.556 24.0661 0.009236 0.047545 10.410272
2006-07-18 07:31:47 51°15.819 2°50.537 24.0612 0.009236 0.047546 10.443982
2006-07-18 07:31:53 51°15.828 2°50.508 24.063 0.009236 0.047547 10.410272
2006-07-18 07:31:58 51°15.835 2°50.483 24.0635 0.009236 0.047548 10.443982
2006-07-18 07:32:03 51°15.842 2°50.459 24.0516 0.009236 0.047548 10.410272
2006-07-18 07:32:08 51°15.849 2°50.434 24.0389 0.009236 0.047548 10.410272
2006-07-18 07:32:13 51°15.855 2°50.41 24.0512 0.009236 0.047549 10.443982
2006-07-18 07:32:17 51°15.861 2°50.391 24.0194 0.009236 0.04755 10.410272
2006-07-18 07:32:22 51°15.868 2°50.366 24.0601 0.009236 0.04755 10.410272
2006-07-18 07:32:28 51°15.877 2°50.337 24.028 0.009236 0.047551 10.410272
2006-07-18 07:32:33 51°15.884 2°50.313 24.0481 0.009236 0.047551 10.443982
2006-07-18 07:32:36 51°15.888 2°50.299 24.0711 0.009236 0.047551 10.443982
2006-07-18 07:32:43 51°15.898 2°50.265 24.088 0.009236 0.047553 10.443982
2006-07-18 07:32:48 51°15.905 2°50.241 24.0875 0.009236 0.047553 10.410272
2006-07-18 07:32:52 51°15.91 2°50.221 24.0808 0.009236 0.047554 10.443982
2006-07-18 07:32:58 51°15.918 2°50.192 24.0785 0.009236 0.047555 10.443982
2006-07-18 07:33:03 51°15.924 2°50.168 24.054 0.009236 0.047556 10.443982
2006-07-18 07:33:08 51°15.93 2°50.143 24.0827 0.009236 0.047556 10.443982
2006-07-18 07:33:13 51°15.936 2°50.119 24.0417 0.009236 0.047557 10.443982
2006-07-18 07:33:18 51°15.942 2°50.094 24.0395 0.009236 0.047557 10.410272
2006-07-18 07:33:23 51°15.948 2°50.07 24.0531 0.009236 0.047558 10.410272
2006-07-18 07:33:28 51°15.955 2°50.045 24.0704 0.009236 0.047559 10.443982
2006-07-18 07:33:32 51°15.96 2°50.025 24.0689 0.009236 0.047559 10.443982
2006-07-18 07:33:37 51°15.966 2°50.001 24.0818 0.009236 0.047559 10.443982
2006-07-18 07:33:41 51°15.971 2°49.981 24.0831 0.009236 0.047561 10.410272
2006-07-18 07:33:47 51°15.979 2°49.952 24.0834 0.009236 0.047561 10.410272
2006-07-18 07:33:53 51°15.987 2°49.922 24.0782 0.009236 0.047562 10.410272
2006-07-18 07:33:56 51°15.991 2°49.907 24.0654 0.009236 0.047563 10.410272
2006-07-18 07:34:02 51°15.999 2°49.877 24.0684 0.009236 0.047564 10.443982
2006-07-18 07:34:06 51°16.004 2°49.857 24.0894 0.009236 0.047564 10.443982
2006-07-18 07:34:12 51°16.011 2°49.827 24.0735 0.009236 0.047564 10.443982
2006-07-18 07:34:17 51°16.018 2°49.803 24.0822 0.009236 0.047565 10.410272
2006-07-18 07:34:23 51°16.026 2°49.773 24.0836 0.009236 0.047566 10.443982
2006-07-18 07:34:28 51°16.032 2°49.748 24.0954 0.009236 0.047566 10.410272
2006-07-18 07:34:32 51°16.038 2°49.728 24.0901 0.009236 0.047567 10.443982
2006-07-18 07:34:38 51°16.046 2°49.698 24.0661 0.009236 0.047567 10.443982
2006-07-18 07:34:43 51°16.052 2°49.674 24.0811 0.009236 0.047568 10.443982
2006-07-18 07:34:48 51°16.059 2°49.649 24.0898 0.009236 0.047569 10.443982
2006-07-18 07:34:53 51°16.066 2°49.624 24.0873 0.009236 0.047569 10.410272
2006-07-18 07:34:57 51°16.071 2°49.605 24.0963 0.009236 0.04757 10.410272
2006-07-18 07:35:02 51°16.078 2°49.58 24.0955 0.009236 0.04757 10.410272
2006-07-18 07:35:08 51°16.086 2°49.551 24.0976 0.009236 0.047571 10.443982
2006-07-18 07:35:13 51°16.093 2°49.526 24.1031 0.009236 0.047572 10.443982
2006-07-18 07:35:17 51°16.099 2°49.506 24.1087 0.009236 0.047572 10.410272
2006-07-18 07:35:22 51°16.106 2°49.482 24.0948 0.009236 0.047573 10.410272
2006-07-18 07:35:27 51°16.112 2°49.457 24.1058 0.009236 0.047574 10.410272
2006-07-18 07:35:32 51°16.119 2°49.433 24.1187 0.009236 0.047574 10.410272
2006-07-18 07:35:38 51°16.127 2°49.403 24.1248 0.009236 0.047574 10.410272
2006-07-18 07:35:42 51°16.132 2°49.383 24.1272 0.009236 0.047575 10.410272
2006-07-18 07:35:48 51°16.14 2°49.354 24.0919 0.009236 0.047576 10.410272
2006-07-18 07:35:53 51°16.147 2°49.329 24.1147 0.009236 0.047576 10.443982
2006-07-18 07:35:57 51°16.152 2°49.309 24.118 0.009236 0.047577 10.410272
2006-07-18 07:36:02 51°16.158 2°49.285 24.0855 0.009236 0.047577 10.410272
2006-07-18 07:36:07 51°16.165 2°49.26 24.1274 0.009236 0.047577 10.410272
2006-07-18 07:36:12 51°16.172 2°49.235 24.0979 0.009236 0.047578 10.410272
2006-07-18 07:36:17 51°16.178 2°49.211 24.1376 0.009236 0.047578 10.443982
2006-07-18 07:36:23 51°16.187 2°49.182 24.138 0.009236 0.047579 10.410272
2006-07-18 07:36:28 51°16.193 2°49.157 24.1368 0.009236 0.04758 10.410272
2006-07-18 07:36:33 51°16.2 2°49.133 24.1242 0.009236 0.04758 10.410272
2006-07-18 07:36:38 51°16.206 2°49.108 24.1432 0.009236 0.047581 10.410272
2006-07-18 07:36:43 51°16.212 2°49.083 24.1268 0.009236 0.047581 10.443982
2006-07-18 07:36:48 51°16.217 2°49.058 24.1267 0.009236 0.047582 10.410272
2006-07-18 07:36:52 51°16.221 2°49.038 24.1349 0.009236 0.047583 10.443982
2006-07-18 07:36:57 51°16.226 2°49.013 24.1204 0.009236 0.047583 10.410272
2006-07-18 07:37:01 51°16.23 2°48.993 24.1064 0.009236 0.047583 10.410272
2006-07-18 07:37:08 51°16.237 2°48.958 24.1238 0.009236 0.047583 10.410272
2006-07-18 07:37:12 51°16.241 2°48.938 24.0952 0.009236 0.047584 10.410272
2006-07-18 07:37:17 51°16.246 2°48.912 24.0549 0.009236 0.047585 10.443982
2006-07-18 07:37:21 51°16.25 2°48.892 24.111 0.009236 0.047586 10.410272
2006-07-18 07:37:27 51°16.257 2°48.863 24.1352 0.009236 0.047586 10.410272
2006-07-18 07:37:33 51°16.264 2°48.833 24.1114 0.009236 0.047586 10.410272
2006-07-18 07:37:38 51°16.27 2°48.808 24.1193 0.009236 0.047586 10.410272
2006-07-18 07:37:43 51°16.277 2°48.784 24.1333 0.009236 0.047587 10.410272
2006-07-18 07:37:48 51°16.283 2°48.759 24.1015 0.009236 0.047587 10.443982
2006-07-18 07:37:53 51°16.29 2°48.735 24.1024 0.009236 0.047588 10.410272
2006-07-18 07:37:57 51°16.295 2°48.716 24.1451 0.009236 0.047589 10.410272
2006-07-18 07:38:02 51°16.302 2°48.692 24.1222 0.009236 0.04759 10.443982
2006-07-18 07:38:08 51°16.311 2°48.663 24.1534 0.009236 0.04759 10.443982
2006-07-18 07:38:12 51°16.317 2°48.644 24.143 0.009236 0.04759 10.443982
2006-07-18 07:38:17 51°16.324 2°48.62 24.1409 0.009236 0.047591 10.410272
2006-07-18 07:38:23 51°16.333 2°48.592 24.1487 0.009236 0.047592 10.410272
2006-07-18 07:38:28 51°16.34 2°48.568 24.1449 0.009236 0.047593 10.410272
2006-07-18 07:38:33 51°16.348 2°48.544 24.1527 0.009236 0.047593 10.410272
2006-07-18 07:38:38 51°16.355 2°48.52 24.1531 0.009236 0.047593 10.376563
2006-07-18 07:38:43 51°16.362 2°48.497 24.1019 0.009236 0.047594 10.443982
2006-07-18 07:38:48 51°16.368 2°48.473 24.152 0.009236 0.047595 10.443982
2006-07-18 07:38:53 51°16.376 2°48.449 24.1463 0.009236 0.047595 10.410272
2006-07-18 07:38:57 51°16.381 2°48.429 24.1257 0.009236 0.047596 10.410272
2006-07-18 07:39:02 51°16.388 2°48.405 24.1557 0.009236 0.047596 10.443982
2006-07-18 07:39:08 51°16.397 2°48.377 24.1624 0.009236 0.047596 10.443982
2006-07-18 07:39:13 51°16.404 2°48.353 24.1503 0.009236 0.047597 10.443982
2006-07-18 07:39:17 51°16.409 2°48.333 24.1487 0.009236 0.047598 10.410272
2006-07-18 07:39:23 51°16.418 2°48.305 24.1302 0.009236 0.047598 10.410272
2006-07-18 07:39:28 51°16.425 2°48.281 24.1723 0.009236 0.047599 10.410272
2006-07-18 07:39:32 51°16.431 2°48.262 24.1597 0.009236 0.047599 10.443982
2006-07-18 07:39:37 51°16.438 2°48.238 24.1712 0.009236 0.047599 10.443982
2006-07-18 07:39:43 51°16.446 2°48.21 24.1503 0.009236 0.0476 10.410272
2006-07-18 07:39:47 51°16.452 2°48.191 24.1786 0.009236 0.047601 10.443982
2006-07-18 07:39:53 51°16.461 2°48.162 24.1642 0.009236 0.047601 10.443982
2006-07-18 07:39:58 51°16.469 2°48.138 24.1826 0.009236 0.047602 10.410272
2006-07-18 07:40:03 51°16.476 2°48.114 24.1323 0.009236 0.047603 10.376563
2006-07-18 07:40:08 51°16.483 2°48.091 24.1588 0.009236 0.047603 10.376563
2006-07-18 07:40:13 51°16.49 2°48.068 24.1555 0.009236 0.047603 10.410272
2006-07-18 07:40:17 51°16.497 2°48.049 24.155 0.009236 0.047604 10.410272
2006-07-18 07:40:22 51°16.504 2°48.026 24.1849 0.009236 0.047604 10.443982
2006-07-18 07:40:28 51°16.513 2°47.998 24.1915 0.009236 0.047605 10.410272
2006-07-18 07:40:33 51°16.521 2°47.974 24.1864 0.009236 0.047605 10.410272
2006-07-18 07:40:37 51°16.526 2°47.955 24.1725 0.009236 0.047606 10.410272
2006-07-18 07:40:43 51°16.535 2°47.927 24.1642 0.009236 0.047606 10.410272
2006-07-18 07:40:48 51°16.541 2°47.903 24.17 0.009236 0.047607 10.443982
2006-07-18 07:40:52 51°16.547 2°47.883 24.1585 0.009236 0.047608 10.443982
2006-07-18 07:40:58 51°16.555 2°47.854 24.1764 0.009236 0.047608 10.410272
2006-07-18 07:41:03 51°16.562 2°47.83 24.1542 0.009236 0.047608 10.410272
2006-07-18 07:41:08 51°16.569 2°47.806 24.1764 0.009236 0.047608 10.410272
2006-07-18 07:41:13 51°16.576 2°47.782 24.1789 0.009236 0.047609 10.443982
2006-07-18 07:41:17 51°16.582 2°47.763 24.1529 0.009236 0.047609 10.443982
2006-07-18 07:41:22 51°16.59 2°47.739 24.1614 0.009236 0.04761 10.410272
2006-07-18 07:41:28 51°16.599 2°47.71 24.1996 0.009236 0.04761 10.410272
2006-07-18 07:41:33 51°16.607 2°47.687 24.1829 0.009236 0.047611 10.410272
2006-07-18 07:41:38 51°16.615 2°47.663 24.2002 0.009236 0.047611 10.410272
2006-07-18 07:41:43 51°16.623 2°47.639 24.202 0.009236 0.047612 10.410272
2006-07-18 07:41:48 51°16.63 2°47.615 24.2129 0.009236 0.047613 10.410272
2006-07-18 07:41:53 51°16.638 2°47.591 24.1963 0.009236 0.047614 10.410272
2006-07-18 07:41:58 51°16.645 2°47.567 24.2083 0.009236 0.047614 10.410272
2006-07-18 07:42:02 51°16.651 2°47.548 24.2082 0.009236 0.047615 10.410272
2006-07-18 07:42:08 51°16.66 2°47.518 24.208 0.009236 0.047615 10.410272
2006-07-18 07:42:13 51°16.666 2°47.494 24.2013 0.009236 0.047616 10.443982
2006-07-18 07:42:18 51°16.673 2°47.469 24.2026 0.009236 0.047616 10.410272
2006-07-18 07:42:23 51°16.678 2°47.444 24.1866 0.009236 0.047617 10.443982
2006-07-18 07:42:28 51°16.684 2°47.419 24.1865 0.009236 0.047617 10.443982
2006-07-18 07:42:32 51°16.689 2°47.399 24.1895 0.009236 0.047617 10.443982
2006-07-18 07:42:38 51°16.696 2°47.368 24.1816 0.009236 0.047619 10.443982
2006-07-18 07:42:43 51°16.701 2°47.343 24.1808 0.009236 0.047619 10.410272
2006-07-18 07:42:47 51°16.706 2°47.322 24.1963 0.009236 0.047619 10.410272
2006-07-18 07:42:52 51°16.711 2°47.297 24.2126 0.009236 0.047621 10.443982
2006-07-18 07:42:57 51°16.717 2°47.272 24.1931 0.009236 0.047621 10.410272
2006-07-18 07:43:02 51°16.722 2°47.246 24.1874 0.009236 0.047622 10.410272
2006-07-18 07:43:07 51°16.728 2°47.221 24.1706 0.009236 0.047622 10.410272
2006-07-18 07:43:13 51°16.736 2°47.19 24.2075 0.009236 0.047622 10.410272
2006-07-18 07:43:18 51°16.742 2°47.165 24.2124 0.009236 0.047623 10.410272
2006-07-18 07:43:23 51°16.748 2°47.14 24.1978 0.009236 0.047624 10.443982
2006-07-18 07:43:28 51°16.754 2°47.115 24.2175 0.009236 0.047625 10.410272
2006-07-18 07:43:33 51°16.76 2°47.089 24.2364 0.009236 0.047625 10.410272
2006-07-18 07:43:38 51°16.766 2°47.064 24.2146 0.009236 0.047625 10.410272
2006-07-18 07:43:43 51°16.771 2°47.038 24.1998 0.009236 0.047627 10.443982
2006-07-18 07:43:48 51°16.777 2°47.013 24.2233 0.009236 0.047627 10.443982
2006-07-18 07:43:53 51°16.782 2°46.987 24.2217 0.009236 0.047627 10.443982
2006-07-18 07:43:57 51°16.787 2°46.967 24.199 0.009236 0.047628 10.410272
2006-07-18 07:44:00 51°16.79 2°46.952 24.2126 0.009236 0.047628 10.410272
2006-07-18 07:44:08 51°16.799 2°46.911 24.2129 0.009236 0.047629 10.410272
2006-07-18 07:44:13 51°16.804 2°46.886 24.1922 0.009236 0.04763 10.443982
2006-07-18 07:44:17 51°16.809 2°46.865 24.1915 0.009236 0.047631 10.443982
2006-07-18 07:44:22 51°16.815 2°46.84 24.2207 0.009236 0.047631 10.410272
2006-07-18 07:44:28 51°16.822 2°46.81 24.2296 0.009236 0.047632 10.410272
2006-07-18 07:44:33 51°16.828 2°46.785 24.2327 0.009236 0.047632 10.376563
2006-07-18 07:44:38 51°16.833 2°46.759 24.2165 0.009236 0.047632 10.376563
2006-07-18 07:44:43 51°16.84 2°46.734 24.2282 0.009236 0.047634 10.410272
2006-07-18 07:44:48 51°16.845 2°46.709 24.229 0.009236 0.047634 10.410272
2006-07-18 07:44:53 51°16.851 2°46.684 24.2329 0.009236 0.047634 10.410272
2006-07-18 07:44:57 51°16.856 2°46.664 24.2132 0.009236 0.047635 10.410272
2006-07-18 07:45:01 51°16.861 2°46.643 24.2494 0.009236 0.047636 10.410272
2006-07-18 07:45:08 51°16.869 2°46.608 24.2062 0.009236 0.047636 10.410272
2006-07-18 07:45:13 51°16.875 2°46.583 24.2581 0.009236 0.047636 10.410272
2006-07-18 07:45:17 51°16.879 2°46.563 24.2381 0.009236 0.047637 10.410272
2006-07-18 07:45:22 51°16.885 2°46.538 24.2227 0.009236 0.047637 10.410272
2006-07-18 07:45:27 51°16.891 2°46.514 24.2136 0.009236 0.047638 10.410272
2006-07-18 07:45:32 51°16.897 2°46.489 24.2277 0.009236 0.047639 10.443982
2006-07-18 07:45:37 51°16.903 2°46.464 24.2332 0.009236 0.047639 10.443982
2006-07-18 07:45:43 51°16.911 2°46.434 24.2535 0.009236 0.047639 10.410272
2006-07-18 07:45:48 51°16.917 2°46.409 24.2216 0.009236 0.04764 10.410272
2006-07-18 07:45:53 51°16.923 2°46.383 24.2488 0.009236 0.04764 10.443982
2006-07-18 07:45:57 51°16.929 2°46.362 24.2541 0.009236 0.047641 10.410272
2006-07-18 07:46:02 51°16.935 2°46.337 24.2176 0.009236 0.047641 10.410272
2006-07-18 07:46:07 51°16.941 2°46.311 24.2644 0.009236 0.047642 10.410272
2006-07-18 07:46:13 51°16.948 2°46.28 24.2401 0.009236 0.047642 10.443982
2006-07-18 07:46:17 51°16.952 2°46.26 24.25 0.009236 0.047643 10.443982
2006-07-18 07:46:23 51°16.959 2°46.229 24.2365 0.009236 0.047644 10.410272
2006-07-18 07:46:27 51°16.964 2°46.208 24.2267 0.009236 0.047645 10.410272
2006-07-18 07:46:32 51°16.97 2°46.182 24.2311 0.009236 0.047645 10.443982
2006-07-18 07:46:37 51°16.976 2°46.157 24.1952 0.009236 0.047645 10.443982
2006-07-18 07:46:41 51°16.98 2°46.136 24.2454 0.009236 0.047646 10.410272
2006-07-18 07:46:48 51°16.989 2°46.1 24.264 0.009236 0.047646 10.410272
2006-07-18 07:46:52 51°16.994 2°46.08 24.2447 0.009236 0.047647 10.443982
2006-07-18 07:46:57 51°17.001 2°46.054 24.2588 0.009236 0.047647 10.376563
2006-07-18 07:47:02 51°17.007 2°46.029 24.2507 0.009236 0.047649 10.410272
2006-07-18 07:47:08 51°17.015 2°45.998 24.2601 0.009236 0.047649 10.410272
2006-07-18 07:47:13 51°17.022 2°45.972 24.2579 0.009236 0.047649 10.410272
2006-07-18 07:47:17 51°17.026 2°45.952 24.2773 0.009236 0.04765 10.410272
2006-07-18 07:47:20 51°17.03 2°45.936 24.2839 0.009236 0.047651 10.410272
2006-07-18 07:47:28 51°17.04 2°45.895 24.2341 0.009236 0.047651 10.410272
2006-07-18 07:47:32 51°17.045 2°45.875 24.2663 0.009236 0.047651 10.410272
2006-07-18 07:47:37 51°17.052 2°45.849 24.2718 0.009236 0.047652 10.410272
2006-07-18 07:47:43 51°17.059 2°45.819 24.2619 0.009236 0.047652 10.410272
2006-07-18 07:47:48 51°17.065 2°45.793 24.2504 0.009236 0.047653 10.410272
2006-07-18 07:47:52 51°17.07 2°45.772 24.274 0.009236 0.047654 10.410272
2006-07-18 07:47:57 51°17.077 2°45.747 24.2731 0.009236 0.047654 10.443982
2006-07-18 07:48:02 51°17.083 2°45.722 24.2866 0.009236 0.047654 10.443982
2006-07-18 07:48:07 51°17.089 2°45.696 24.2797 0.009236 0.047655 10.410272
2006-07-18 07:48:13 51°17.097 2°45.665 24.2492 0.009236 0.047656 10.376563
2006-07-18 07:48:16 51°17.101 2°45.65 24.2909 0.009236 0.047657 10.410272
2006-07-18 07:48:20 51°17.106 2°45.63 24.2862 0.009236 0.047657 10.443982
2006-07-18 07:48:28 51°17.116 2°45.589 24.2676 0.009236 0.047657 10.443982
2006-07-18 07:48:33 51°17.123 2°45.563 24.2951 0.009236 0.047658 10.410272
2006-07-18 07:48:37 51°17.128 2°45.543 24.2924 0.009236 0.047658 10.410272
2006-07-18 07:48:42 51°17.134 2°45.517 24.294 0.009236 0.047659 10.376563
2006-07-18 07:48:48 51°17.142 2°45.486 24.2952 0.009236 0.047659 10.443982
2006-07-18 07:48:53 51°17.148 2°45.461 24.2842 0.009236 0.04766 10.410272
2006-07-18 07:48:57 51°17.152 2°45.44 24.2767 0.009236 0.04766 10.410272
2006-07-18 07:49:02 51°17.159 2°45.415 24.2573 0.009236 0.04766 10.410272
2006-07-18 07:49:07 51°17.165 2°45.389 24.2972 0.009236 0.047661 10.443982
2006-07-18 07:49:12 51°17.171 2°45.363 24.2983 0.009236 0.047661 10.410272
2006-07-18 07:49:17 51°17.178 2°45.338 24.2942 0.009236 0.047662 10.410272
2006-07-18 07:49:23 51°17.186 2°45.307 24.2867 0.009236 0.047663 10.410272
2006-07-18 07:49:28 51°17.192 2°45.282 24.2951 0.009236 0.047663 10.443982
2006-07-18 07:49:33 51°17.199 2°45.257 24.3071 0.009236 0.047663 10.443982
2006-07-18 07:49:38 51°17.205 2°45.231 24.2831 0.009236 0.047664 10.410272
2006-07-18 07:49:43 51°17.212 2°45.206 24.2997 0.009236 0.047664 10.410272
2006-07-18 07:49:48 51°17.218 2°45.181 24.3061 0.009236 0.047664 10.410272
2006-07-18 07:49:52 51°17.224 2°45.161 24.3184 0.009236 0.047665 10.410272
2006-07-18 07:49:57 51°17.23 2°45.135 24.2926 0.009133 0.047217 10.410272
2006-07-18 07:50:01 51°17.235 2°45.115 24.3015 0.009236 0.047666 10.410272
2006-07-18 07:50:08 51°17.244 2°45.079 24.3026 0.009236 0.047666 10.410272
2006-07-18 07:50:13 51°17.25 2°45.054 24.3141 0.009236 0.047667 10.443982
2006-07-18 07:50:18 51°17.257 2°45.029 24.306 0.009236 0.047667 10.410272
2006-07-18 07:50:23 51°17.263 2°45.003 24.3109 0.009236 0.047668 10.410272
2006-07-18 07:50:28 51°17.269 2°44.978 24.3068 0.009236 0.047669 10.443982
2006-07-18 07:50:33 51°17.276 2°44.952 24.3262 0.009236 0.047669 10.410272
2006-07-18 07:50:37 51°17.28 2°44.931 24.311 0.009236 0.047669 10.410272
2006-07-18 07:50:42 51°17.286 2°44.906 24.2791 0.009236 0.04767 10.443982
2006-07-18 07:50:47 51°17.292 2°44.88 24.2752 0.009236 0.047671 10.443982
2006-07-18 07:50:53 51°17.3 2°44.85 24.2956 0.009236 0.047671 10.410272
2006-07-18 07:50:58 51°17.306 2°44.825 24.3188 0.009236 0.047672 10.443982
2006-07-18 07:51:03 51°17.313 2°44.799 24.3059 0.009236 0.047672 10.443982
2006-07-18 07:51:08 51°17.319 2°44.774 24.3236 0.009236 0.047672 10.443982
2006-07-18 07:51:13 51°17.326 2°44.749 24.317 0.009236 0.047673 10.443982
2006-07-18 07:51:17 51°17.331 2°44.728 24.3431 0.009236 0.047674 10.376563
2006-07-18 07:51:23 51°17.339 2°44.698 24.3383 0.009236 0.047675 10.443982
2006-07-18 07:51:28 51°17.346 2°44.673 24.3315 0.009236 0.047675 10.410272
2006-07-18 07:51:32 51°17.351 2°44.652 24.3093 0.009236 0.047675 10.410272
2006-07-18 07:51:36 51°17.356 2°44.632 24.3363 0.009236 0.047675 10.410272
2006-07-18 07:51:43 51°17.365 2°44.596 24.316 0.009236 0.047676 10.443982
2006-07-18 07:51:48 51°17.372 2°44.571 24.3365 0.009133 0.047227 10.410272
2006-07-18 07:51:53 51°17.379 2°44.546 24.3364 0.009236 0.047677 10.410272
2006-07-18 07:51:58 51°17.385 2°44.521 24.3328 0.009236 0.047678 10.410272
2006-07-18 07:52:03 51°17.393 2°44.496 24.3443 0.009133 0.047229 10.410272
2006-07-18 07:52:08 51°17.4 2°44.471 24.3336 0.009133 0.047229 10.410272
2006-07-18 07:52:13 51°17.407 2°44.446 24.3351 0.009236 0.047679 10.410272
2006-07-18 07:52:17 51°17.413 2°44.426 24.3412 0.009133 0.04723 10.376563
2006-07-18 07:52:20 51°17.417 2°44.411 24.3442 0.009236 0.04768 10.410272
2006-07-18 07:52:28 51°17.428 2°44.371 24.3271 0.009236 0.047681 10.443982
2006-07-18 07:52:33 51°17.435 2°44.346 24.335 0.009236 0.047682 10.443982
2006-07-18 07:52:36 51°17.439 2°44.33 24.3307 0.009236 0.047682 10.443982
2006-07-18 07:52:43 51°17.449 2°44.295 24.3599 0.009236 0.047682 10.443982
2006-07-18 07:52:47 51°17.455 2°44.275 24.3511 0.009133 0.047233 10.410272
2006-07-18 07:52:53 51°17.463 2°44.245 24.3526 0.009236 0.047684 10.410272
2006-07-18 07:52:57 51°17.469 2°44.225 24.3314 0.009236 0.047684 10.410272
2006-07-18 07:53:01 51°17.474 2°44.204 24.3423 0.009236 0.047684 10.410272
2006-07-18 07:53:08 51°17.484 2°44.169 24.3106 0.009236 0.047684 10.443982
2006-07-18 07:53:13 51°17.491 2°44.144 24.3516 0.009236 0.047686 10.410272
2006-07-18 07:53:17 51°17.496 2°44.124 24.3616 0.009133 0.047236 10.410272
2006-07-18 07:53:20 51°17.501 2°44.109 24.3652 0.009133 0.047237 10.410272
2006-07-18 07:53:28 51°17.512 2°44.069 24.3736 0.009236 0.047688 10.410272
2006-07-18 07:53:33 51°17.519 2°44.044 24.3497 0.009236 0.047688 10.410272
2006-07-18 07:53:38 51°17.526 2°44.018 24.3483 0.009236 0.047688 10.410272
2006-07-18 07:53:43 51°17.534 2°43.994 24.3595 0.009236 0.047689 10.443982
2006-07-18 07:53:48 51°17.541 2°43.968 24.3497 0.009236 0.047689 10.410272
2006-07-18 07:53:53 51°17.548 2°43.943 24.3528 0.009236 0.04769 10.410272
2006-07-18 07:53:57 51°17.553 2°43.923 24.356 0.009236 0.047691 10.443982
2006-07-18 07:54:02 51°17.56 2°43.898 24.3797 0.009236 0.047691 10.443982
2006-07-18 07:54:07 51°17.567 2°43.873 24.3587 0.009236 0.047691 10.443982
2006-07-18 07:54:13 51°17.575 2°43.843 24.3632 0.009236 0.047692 10.410272
2006-07-18 07:54:18 51°17.582 2°43.818 24.3502 0.009236 0.047692 10.443982
2006-07-18 07:54:23 51°17.589 2°43.792 24.3705 0.009236 0.047693 10.410272
2006-07-18 07:54:28 51°17.595 2°43.767 24.3631 0.009236 0.047694 10.376563
2006-07-18 07:54:33 51°17.603 2°43.742 24.3627 0.009236 0.047694 10.376563
2006-07-18 07:54:37 51°17.608 2°43.722 24.3847 0.009236 0.047694 10.410272
2006-07-18 07:54:42 51°17.616 2°43.698 24.3457 0.009236 0.047695 10.410272
2006-07-18 07:54:47 51°17.623 2°43.673 24.361 0.009133 0.047246 10.410272
2006-07-18 07:54:53 51°17.632 2°43.644 24.3455 0.009133 0.047246 10.410272
2006-07-18 07:54:57 51°17.639 2°43.624 24.369 0.009236 0.047696 10.410272
2006-07-18 07:55:00 51°17.644 2°43.609 24.4082 0.009133 0.047247 10.410272
2006-07-18 07:55:06 51°17.653 2°43.58 24.3777 0.009133 0.047247 10.410272
2006-07-18 07:55:12 51°17.663 2°43.551 24.3965 0.009236 0.047698 10.410272
2006-07-18 07:55:17 51°17.671 2°43.526 24.3816 0.009236 0.047699 10.410272
2006-07-18 07:55:23 51°17.68 2°43.497 24.4017 0.009133 0.047249 10.410272
2006-07-18 07:55:28 51°17.688 2°43.472 24.3634 0.009236 0.0477 10.443982
2006-07-18 07:55:33 51°17.695 2°43.448 24.3888 0.009133 0.047251 10.410272
2006-07-18 07:55:37 51°17.701 2°43.428 24.3812 0.009133 0.047251 10.410272
2006-07-18 07:55:43 51°17.709 2°43.398 24.3842 0.009133 0.047252 10.443982
2006-07-18 07:55:48 51°17.717 2°43.374 24.3706 0.009133 0.047252 10.410272
2006-07-18 07:55:52 51°17.723 2°43.354 24.3726 0.009133 0.047252 10.410272
2006-07-18 07:55:58 51°17.732 2°43.325 24.402 0.009236 0.047703 10.443982
2006-07-18 07:56:03 51°17.74 2°43.301 24.3917 0.009133 0.047254 10.443982
2006-07-18 07:56:08 51°17.748 2°43.276 24.4086 0.009133 0.047254 10.443982
2006-07-18 07:56:12 51°17.754 2°43.257 24.3914 0.009236 0.047705 10.410272
2006-07-18 07:56:18 51°17.763 2°43.227 24.3977 0.009133 0.047255 10.410272
2006-07-18 07:56:23 51°17.771 2°43.203 24.3753 0.009236 0.047706 10.410272
2006-07-18 07:56:28 51°17.778 2°43.178 24.3885 0.009236 0.047706 10.376563
2006-07-18 07:56:33 51°17.786 2°43.154 24.3832 0.009236 0.047707 10.443982
2006-07-18 07:56:38 51°17.794 2°43.13 24.3796 0.009236 0.047707 10.443982
2006-07-18 07:56:43 51°17.803 2°43.105 24.4002 0.009236 0.047708 10.410272
2006-07-18 07:56:48 51°17.811 2°43.081 24.4165 0.009236 0.047708 10.410272
2006-07-18 07:56:52 51°17.818 2°43.062 24.4015 0.009236 0.04771 10.410272
2006-07-18 07:56:57 51°17.826 2°43.038 24.4111 0.009236 0.04771 10.410272
2006-07-18 07:57:01 51°17.833 2°43.018 24.3819 0.009236 0.047711 10.443982
2006-07-18 07:57:08 51°17.844 2°42.984 24.4203 0.009236 0.047711 10.443982
2006-07-18 07:57:12 51°17.851 2°42.965 24.4248 0.009236 0.047712 10.443982
2006-07-18 07:57:17 51°17.859 2°42.94 24.4254 0.009133 0.047262 10.410272
2006-07-18 07:57:23 51°17.868 2°42.911 24.4314 0.009236 0.047713 10.443982
2006-07-18 07:57:27 51°17.874 2°42.891 24.4289 0.009236 0.047714 10.443982
2006-07-18 07:57:32 51°17.881 2°42.866 24.4023 0.009133 0.047265 10.410272
2006-07-18 07:57:37 51°17.888 2°42.841 24.4297 0.009133 0.047265 10.410272
2006-07-18 07:57:42 51°17.895 2°42.816 24.3852 0.009133 0.047266 10.410272
2006-07-18 07:57:48 51°17.902 2°42.786 24.3606 0.009236 0.047717 10.410272
2006-07-18 07:57:53 51°17.909 2°42.761 24.3428 0.009133 0.047267 10.443982
2006-07-18 07:57:57 51°17.914 2°42.741 24.3947 0.009133 0.047268 10.443982
2006-07-18 07:58:03 51°17.923 2°42.711 24.3961 0.009236 0.047719 10.410272
2006-07-18 07:58:08 51°17.931 2°42.686 24.4207 0.009236 0.047719 10.410272
2006-07-18 07:58:13 51°17.939 2°42.662 24.412 0.009236 0.04772 10.410272
2006-07-18 07:58:18 51°17.946 2°42.638 24.4252 0.009133 0.04727 10.410272
2006-07-18 07:58:23 51°17.954 2°42.613 24.4324 0.009236 0.047721 10.410272
2006-07-18 07:58:28 51°17.962 2°42.589 24.412 0.009133 0.047271 10.410272
2006-07-18 07:58:33 51°17.97 2°42.564 24.4261 0.009133 0.047272 10.443982
2006-07-18 07:58:37 51°17.977 2°42.545 24.4088 0.009133 0.047272 10.443982
2006-07-18 07:58:43 51°17.986 2°42.516 24.4165 0.009236 0.047723 10.477691
2006-07-18 07:58:48 51°17.994 2°42.491 24.4425 0.009133 0.047273 10.410272
2006-07-18 07:58:53 51°18.002 2°42.467 24.4144 0.009133 0.047274 10.410272
2006-07-18 07:58:58 51°18.01 2°42.442 24.4146 0.009236 0.047726 10.443982
2006-07-18 07:59:03 51°18.018 2°42.417 24.365 0.009133 0.047276 10.410272
2006-07-18 07:59:08 51°18.026 2°42.393 24.4229 0.009133 0.047276 10.410272
2006-07-18 07:59:12 51°18.032 2°42.373 24.4034 0.009236 0.047727 10.443982
2006-07-18 07:59:17 51°18.04 2°42.349 24.4283 0.009133 0.047277 10.410272
2006-07-18 07:59:23 51°18.051 2°42.32 24.4029 0.009236 0.047728 10.443982
2006-07-18 07:59:28 51°18.059 2°42.296 24.438 0.009236 0.047728 10.410272
2006-07-18 07:59:33 51°18.068 2°42.272 24.4345 0.009133 0.047279 10.410272
2006-07-18 07:59:38 51°18.076 2°42.248 24.426 0.009133 0.047279 10.410272
2006-07-18 07:59:42 51°18.083 2°42.229 24.413 0.009133 0.04728 10.443982
2006-07-18 07:59:47 51°18.092 2°42.205 24.4058 0.009133 0.047281 10.410272
2006-07-18 07:59:53 51°18.102 2°42.176 24.4286 0.009236 0.047733 10.410272
2006-07-18 07:59:58 51°18.111 2°42.152 24.4323 0.009133 0.047283 10.410272
2006-07-18 08:00:02 51°18.118 2°42.132 24.4378 0.009133 0.047283 10.410272
2006-07-18 08:00:08 51°18.128 2°42.104 24.4483 0.009133 0.047283 10.410272
2006-07-18 08:00:12 51°18.135 2°42.084 24.4468 0.009133 0.047284 10.410272
2006-07-18 08:00:18 51°18.146 2°42.056 24.4442 0.009133 0.047285 10.443982
2006-07-18 08:00:23 51°18.154 2°42.031 24.447 0.009133 0.047286 10.443982
2006-07-18 08:00:28 51°18.163 2°42.007 24.4483 0.009133 0.047287 10.443982
2006-07-18 08:00:33 51°18.172 2°41.983 24.4467 0.009133 0.047287 10.410272
2006-07-18 08:00:38 51°18.18 2°41.96 24.43 0.009133 0.047287 10.410272
2006-07-18 08:00:43 51°18.189 2°41.936 24.4427 0.009236 0.047739 10.443982
2006-07-18 08:00:48 51°18.198 2°41.912 24.4444 0.009133 0.047289 10.443982
2006-07-18 08:00:53 51°18.206 2°41.888 24.43 0.009133 0.04729 10.410272
2006-07-18 08:00:57 51°18.213 2°41.869 24.4565 0.009133 0.04729 10.410272
2006-07-18 08:01:03 51°18.223 2°41.84 24.4055 0.009133 0.047292 10.410272
2006-07-18 08:01:08 51°18.232 2°41.816 24.453 0.009133 0.047292 10.410272
2006-07-18 08:01:13 51°18.24 2°41.793 24.4599 0.009133 0.047293 10.443982
2006-07-18 08:01:17 51°18.247 2°41.774 24.4605 0.009133 0.047293 10.443982
2006-07-18 08:01:23 51°18.257 2°41.746 24.4603 0.009133 0.047294 10.376563
2006-07-18 08:01:27 51°18.264 2°41.727 24.4503 0.009236 0.047745 10.410272
2006-07-18 08:01:33 51°18.274 2°41.698 24.4618 0.009133 0.047295 10.410272
2006-07-18 08:01:37 51°18.281 2°41.679 24.4681 0.009133 0.047295 10.410272
2006-07-18 08:01:43 51°18.291 2°41.651 24.4788 0.009133 0.047296 10.443982
2006-07-18 08:01:48 51°18.3 2°41.627 24.4688 0.009133 0.047297 10.443982
2006-07-18 08:01:52 51°18.306 2°41.608 24.4662 0.009133 0.047298 10.410272
2006-07-18 08:01:57 51°18.315 2°41.584 24.4623 0.009133 0.047298 10.443982
2006-07-18 08:02:03 51°18.324 2°41.555 24.4557 0.009133 0.047298 10.443982
2006-07-18 08:02:07 51°18.331 2°41.536 24.4765 0.009133 0.047299 10.443982
2006-07-18 08:02:13 51°18.341 2°41.507 24.4745 0.009133 0.0473 10.410272
2006-07-18 08:02:18 51°18.348 2°41.483 24.4387 0.009133 0.0473 10.443982
2006-07-18 08:02:22 51°18.355 2°41.464 24.4775 0.009133 0.047301 10.410272
2006-07-18 08:02:27 51°18.363 2°41.44 24.4802 0.009133 0.047301 10.410272
2006-07-18 08:02:32 51°18.371 2°41.416 24.4819 0.009133 0.047301 10.443982
2006-07-18 08:02:37 51°18.38 2°41.392 24.4698 0.009133 0.047301 10.443982
2006-07-18 08:02:43 51°18.39 2°41.363 24.4651 0.009133 0.047302 10.410272
2006-07-18 08:02:47 51°18.396 2°41.343 24.4776 0.009133 0.047303 10.410272
2006-07-18 08:02:52 51°18.405 2°41.319 24.4666 0.009133 0.047303 10.410272
2006-07-18 08:02:57 51°18.414 2°41.295 24.4996 0.009133 0.047305 10.410272
2006-07-18 08:03:03 51°18.424 2°41.266 24.4473 0.009133 0.047305 10.410272
2006-07-18 08:03:08 51°18.433 2°41.243 24.4998 0.009133 0.047305 10.410272
2006-07-18 08:03:12 51°18.44 2°41.224 24.4931 0.009133 0.047305 10.410272
2006-07-18 08:03:17 51°18.449 2°41.2 24.5007 0.009133 0.047306 10.410272
2006-07-18 08:03:23 51°18.459 2°41.172 24.5079 0.009133 0.047306 10.410272
2006-07-18 08:03:27 51°18.466 2°41.153 24.503 0.009133 0.047308 10.443982
2006-07-18 08:03:33 51°18.476 2°41.124 24.4971 0.009133 0.047308 10.443982
2006-07-18 08:03:37 51°18.483 2°41.105 24.5107 0.009133 0.047308 10.410272
2006-07-18 08:03:43 51°18.492 2°41.076 24.4814 0.009133 0.047309 10.410272
2006-07-18 08:03:47 51°18.499 2°41.057 24.4899 0.009133 0.04731 10.443982
2006-07-18 08:03:53 51°18.508 2°41.029 24.5147 0.009133 0.047311 10.443982
2006-07-18 08:03:58 51°18.516 2°41.005 24.4493 0.009133 0.047311 10.443982
2006-07-18 08:04:03 51°18.523 2°40.981 24.4746 0.009133 0.047311 10.410272
2006-07-18 08:04:08 51°18.531 2°40.957 24.4789 0.009133 0.047311 10.410272
2006-07-18 08:04:12 51°18.538 2°40.939 24.5064 0.009133 0.047312 10.410272
2006-07-18 08:04:18 51°18.548 2°40.911 24.5022 0.009133 0.047313 10.443982
2006-07-18 08:04:22 51°18.555 2°40.892 24.5075 0.009133 0.047314 10.443982
2006-07-18 08:04:28 51°18.566 2°40.864 24.4901 0.009133 0.047314 10.410272
2006-07-18 08:04:32 51°18.573 2°40.846 24.4993 0.009133 0.047315 10.443982
2006-07-18 08:04:37 51°18.582 2°40.823 24.5018 0.009133 0.047315 10.443982
2006-07-18 08:04:43 51°18.594 2°40.796 24.519 0.009133 0.047315 10.410272
2006-07-18 08:04:47 51°18.601 2°40.778 24.52 0.009133 0.047316 10.443982
2006-07-18 08:04:53 51°18.612 2°40.751 24.5275 0.009133 0.047316 10.410272
2006-07-18 08:04:56 51°18.618 2°40.737 24.5184 0.009133 0.047317 10.443982
2006-07-18 08:05:03 51°18.63 2°40.704 24.5226 0.009133 0.047318 10.443982
2006-07-18 08:05:08 51°18.639 2°40.681 24.5051 0.009133 0.047318 10.443982
2006-07-18 08:05:12 51°18.647 2°40.662 24.5121 0.009133 0.047319 10.410272
2006-07-18 08:05:18 51°18.657 2°40.635 24.5067 0.009133 0.047319 10.410272
2006-07-18 08:05:22 51°18.664 2°40.616 24.4884 0.009133 0.04732 10.410272
2006-07-18 08:05:27 51°18.673 2°40.593 24.5384 0.009133 0.047321 10.410272
2006-07-18 08:05:33 51°18.684 2°40.565 24.4704 0.009133 0.047321 10.410272
2006-07-18 08:05:38 51°18.693 2°40.542 24.4783 0.009133 0.047321 10.410272
2006-07-18 08:05:43 51°18.702 2°40.52 24.4914 0.009133 0.047321 10.410272
2006-07-18 08:05:48 51°18.711 2°40.497 24.51 0.009133 0.047322 10.443982
2006-07-18 08:05:53 51°18.72 2°40.474 24.5004 0.009133 0.047322 10.443982
2006-07-18 08:05:58 51°18.729 2°40.452 24.5194 0.009133 0.047323 10.410272
2006-07-18 08:06:03 51°18.739 2°40.429 24.5255 0.009133 0.047324 10.410272
2006-07-18 08:06:08 51°18.749 2°40.407 24.5346 0.009133 0.047324 10.410272
2006-07-18 08:06:12 51°18.756 2°40.389 24.5152 0.009133 0.047325 10.443982
2006-07-18 08:06:17 51°18.766 2°40.367 24.5417 0.009133 0.047325 10.410272
2006-07-18 08:06:22 51°18.775 2°40.344 24.5342 0.009133 0.047326 10.443982
2006-07-18 08:06:27 51°18.785 2°40.321 24.5544 0.009133 0.047326 10.410272
2006-07-18 08:06:32 51°18.794 2°40.297 24.5288 0.009133 0.047327 10.410272
2006-07-18 08:06:38 51°18.805 2°40.269 24.52 0.009133 0.047327 10.410272
2006-07-18 08:06:42 51°18.813 2°40.251 24.5175 0.009133 0.047328 10.410272
2006-07-18 08:06:48 51°18.824 2°40.223 24.5276 0.009133 0.047329 10.410272
2006-07-18 08:06:52 51°18.832 2°40.204 24.5419 0.009133 0.047329 10.443982
2006-07-18 08:06:57 51°18.841 2°40.18 24.5385 0.009133 0.04733 10.410272
2006-07-18 08:07:03 51°18.851 2°40.153 24.5192 0.009133 0.047331 10.443982
2006-07-18 08:07:07 51°18.858 2°40.134 24.5434 0.009133 0.047331 10.443982
2006-07-18 08:07:13 51°18.87 2°40.105 24.4854 0.009133 0.047331 10.443982
2006-07-18 08:07:18 51°18.879 2°40.082 24.5401 0.009133 0.047332 10.443982
2006-07-18 08:07:23 51°18.888 2°40.059 24.5126 0.009133 0.047333 10.410272
2006-07-18 08:07:27 51°18.896 2°40.04 24.5494 0.009133 0.047334 10.410272
2006-07-18 08:07:32 51°18.906 2°40.016 24.5122 0.009133 0.047334 10.410272
2006-07-18 08:07:37 51°18.915 2°39.993 24.559 0.009133 0.047334 10.443982
2006-07-18 08:07:43 51°18.926 2°39.965 24.5644 0.009133 0.047335 10.410272
2006-07-18 08:07:48 51°18.936 2°39.941 24.5426 0.009133 0.047336 10.443982
2006-07-18 08:07:53 51°18.945 2°39.918 24.5583 0.009133 0.047337 10.376563
2006-07-18 08:07:58 51°18.954 2°39.894 24.5435 0.009133 0.047337 10.410272
2006-07-18 08:08:03 51°18.962 2°39.871 24.5421 0.009133 0.047337 10.376563
2006-07-18 08:08:08 51°18.971 2°39.847 24.5327 0.009133 0.047337 10.376563
2006-07-18 08:08:13 51°18.979 2°39.824 24.5302 0.009133 0.047339 10.410272
2006-07-18 08:08:18 51°18.988 2°39.8 24.5033 0.009133 0.047339 10.443982
2006-07-18 08:08:23 51°18.996 2°39.776 24.4983 0.009133 0.04734 10.410272
2006-07-18 08:08:28 51°19.005 2°39.752 24.5211 0.009133 0.04734 10.443982
2006-07-18 08:08:33 51°19.014 2°39.728 24.5447 0.009133 0.047341 10.443982
2006-07-18 08:08:38 51°19.023 2°39.705 24.5462 0.009133 0.047341 10.443982
2006-07-18 08:08:43 51°19.033 2°39.681 24.552 0.009133 0.047342 10.443982
2006-07-18 08:08:48 51°19.042 2°39.657 24.5534 0.009133 0.047342 10.410272
2006-07-18 08:08:52 51°19.049 2°39.637 24.552 0.009133 0.047344 10.410272
2006-07-18 08:08:58 51°19.059 2°39.608 24.548 0.009133 0.047344 10.410272
2006-07-18 08:09:03 51°19.068 2°39.583 24.5359 0.009133 0.047345 10.410272
2006-07-18 08:09:06 51°19.073 2°39.569 24.5274 0.009133 0.047345 10.410272
2006-07-18 08:09:13 51°19.085 2°39.534 24.5562 0.009133 0.047346 10.443982
2006-07-18 08:09:17 51°19.093 2°39.515 24.5504 0.009133 0.047347 10.443982
2006-07-18 08:09:23 51°19.104 2°39.486 24.5468 0.009133 0.047347 10.443982
2006-07-18 08:09:28 51°19.113 2°39.462 24.5626 0.009133 0.047348 10.410272
2006-07-18 08:09:32 51°19.12 2°39.443 24.5609 0.009133 0.047349 10.410272
2006-07-18 08:09:38 51°19.131 2°39.414 24.5721 0.009133 0.047349 10.410272
2006-07-18 08:09:42 51°19.138 2°39.394 24.566 0.009133 0.047349 10.410272
2006-07-18 08:09:47 51°19.147 2°39.37 24.553 0.009133 0.04735 10.443982
2006-07-18 08:09:53 51°19.157 2°39.34 24.5852 0.009133 0.047351 10.410272
2006-07-18 08:09:57 51°19.165 2°39.321 24.569 0.009133 0.047351 10.410272
2006-07-18 08:10:03 51°19.175 2°39.291 24.5789 0.009133 0.047352 10.410272
2006-07-18 08:10:08 51°19.184 2°39.267 24.5637 0.009133 0.047352 10.410272
2006-07-18 08:10:12 51°19.191 2°39.248 24.5863 0.009133 0.047353 10.443982
2006-07-18 08:10:18 51°19.202 2°39.218 24.5735 0.009133 0.047353 10.443982
2006-07-18 08:10:22 51°19.21 2°39.199 24.5492 0.009133 0.047354 10.443982
2006-07-18 08:10:28 51°19.22 2°39.17 24.5478 0.009133 0.047355 10.410272
2006-07-18 08:10:32 51°19.228 2°39.15 24.5937 0.009133 0.047355 10.410272
2006-07-18 08:10:37 51°19.237 2°39.126 24.5697 0.009133 0.047355 10.410272
2006-07-18 08:10:43 51°19.249 2°39.097 24.5833 0.009133 0.047356 10.410272
2006-07-18 08:10:47 51°19.256 2°39.078 24.5787 0.009133 0.047357 10.410272
2006-07-18 08:10:53 51°19.268 2°39.049 24.5957 0.009133 0.047358 10.443982
2006-07-18 08:10:56 51°19.273 2°39.034 24.5862 0.009133 0.047358 10.410272
2006-07-18 08:11:03 51°19.285 2°39 24.6124 0.009133 0.047358 10.410272
2006-07-18 08:11:08 51°19.294 2°38.975 24.6169 0.009133 0.047359 10.443982
2006-07-18 08:11:12 51°19.3 2°38.955 24.5676 0.009133 0.047359 10.410272
2006-07-18 08:11:18 51°19.309 2°38.925 24.5559 0.009133 0.04736 10.410272
2006-07-18 08:11:23 51°19.316 2°38.9 24.5813 0.009133 0.047361 10.410272
2006-07-18 08:11:28 51°19.324 2°38.875 24.557 0.009133 0.047361 10.410272
2006-07-18 08:11:32 51°19.33 2°38.855 24.564 0.009133 0.047362 10.410272
2006-07-18 08:11:38 51°19.34 2°38.825 24.5789 0.009133 0.047362 10.410272
2006-07-18 08:11:43 51°19.349 2°38.801 24.5898 0.009133 0.047362 10.443982
2006-07-18 08:11:48 51°19.358 2°38.776 24.5747 0.009133 0.047362 10.443982
2006-07-18 08:11:53 51°19.367 2°38.752 24.5851 0.009133 0.047363 10.443982
2006-07-18 08:11:58 51°19.376 2°38.727 24.5825 0.009133 0.047363 10.443982
2006-07-18 08:12:03 51°19.385 2°38.703 24.6055 0.009133 0.047364 10.443982
2006-07-18 08:12:08 51°19.394 2°38.679 24.6025 0.009133 0.047364 10.443982
2006-07-18 08:12:12 51°19.402 2°38.66 24.5881 0.009133 0.047365 10.410272
2006-07-18 08:12:18 51°19.413 2°38.631 24.6052 0.009133 0.047365 10.410272
2006-07-18 08:12:23 51°19.423 2°38.607 24.5783 0.009133 0.047366 10.410272
2006-07-18 08:12:28 51°19.432 2°38.583 24.6154 0.009133 0.047366 10.376563
2006-07-18 08:12:33 51°19.442 2°38.559 24.6059 0.009133 0.047366 10.376563
2006-07-18 08:12:38 51°19.452 2°38.535 24.5999 0.009133 0.047367 10.443982
2006-07-18 08:12:43 51°19.461 2°38.511 24.6227 0.009133 0.047367 10.443982
2006-07-18 08:12:48 51°19.471 2°38.487 24.6055 0.009133 0.047368 10.443982
2006-07-18 08:12:52 51°19.478 2°38.468 24.6167 0.009133 0.047368 10.410272
2006-07-18 08:12:58 51°19.49 2°38.439 24.6 0.009133 0.047369 10.443982
2006-07-18 08:13:03 51°19.499 2°38.415 24.6095 0.009133 0.047369 10.410272
2006-07-18 08:13:07 51°19.507 2°38.395 24.6231 0.009133 0.047369 10.410272
2006-07-18 08:13:12 51°19.517 2°38.371 24.6074 0.009133 0.047369 10.443982
2006-07-18 08:13:18 51°19.528 2°38.342 24.6031 0.009133 0.04737 10.410272
2006-07-18 08:13:23 51°19.537 2°38.317 24.6046 0.009133 0.04737 10.410272
2006-07-18 08:13:28 51°19.546 2°38.293 24.602 0.009133 0.047371 10.410272
2006-07-18 08:13:32 51°19.554 2°38.274 24.5995 0.009133 0.047371 10.410272
2006-07-18 08:13:37 51°19.563 2°38.249 24.6162 0.009133 0.047371 10.410272
2006-07-18 08:13:43 51°19.574 2°38.221 24.616 0.009133 0.047371 10.410272
2006-07-18 08:13:47 51°19.581 2°38.201 24.6298 0.009133 0.047372 10.443982
2006-07-18 08:13:53 51°19.592 2°38.173 24.6142 0.009133 0.047372 10.410272
2006-07-18 08:13:58 51°19.601 2°38.149 24.6231 0.009133 0.047372 10.443982
2006-07-18 08:14:03 51°19.611 2°38.126 24.6189 0.009133 0.047373 10.410272
2006-07-18 08:14:08 51°19.62 2°38.102 24.6243 0.009133 0.047373 10.410272
2006-07-18 08:14:13 51°19.629 2°38.078 24.6381 0.009133 0.047373 10.443982
2006-07-18 08:14:16 51°19.635 2°38.064 24.6214 0.009133 0.047373 10.443982
2006-07-18 08:14:23 51°19.647 2°38.031 24.5836 0.009133 0.047374 10.443982
2006-07-18 08:14:27 51°19.654 2°38.011 24.645 0.009133 0.047374 10.410272
2006-07-18 08:14:33 51°19.665 2°37.983 24.5847 0.009133 0.047375 10.443982
2006-07-18 08:14:37 51°19.672 2°37.964 24.6251 0.009133 0.047375 10.443982
2006-07-18 08:14:43 51°19.683 2°37.935 24.5829 0.009133 0.047375 10.410272
2006-07-18 08:14:46 51°19.688 2°37.921 24.6092 0.009133 0.047375 10.410272
2006-07-18 08:14:53 51°19.702 2°37.888 24.6281 0.009133 0.047375 10.410272
2006-07-18 08:14:57 51°19.71 2°37.869 24.5992 0.009133 0.047376 10.443982
2006-07-18 08:15:03 51°19.722 2°37.842 24.6421 0.009133 0.047376 10.443982
2006-07-18 08:15:08 51°19.732 2°37.819 24.6381 0.009133 0.047376 10.443982
2006-07-18 08:15:13 51°19.742 2°37.796 24.626 0.009133 0.047377 10.410272
2006-07-18 08:15:18 51°19.752 2°37.773 24.6276 0.009133 0.047377 10.443982
2006-07-18 08:15:23 51°19.762 2°37.75 24.6585 0.009133 0.047378 10.443982
2006-07-18 08:15:28 51°19.772 2°37.727 24.6416 0.009133 0.047378 10.410272
2006-07-18 08:15:32 51°19.779 2°37.709 24.6191 0.009133 0.047379 10.443982
2006-07-18 08:15:37 51°19.789 2°37.686 24.6467 0.009133 0.047379 10.443982
2006-07-18 08:15:43 51°19.801 2°37.658 24.6306 0.009133 0.047379 10.410272
2006-07-18 08:15:47 51°19.808 2°37.64 24.6569 0.009133 0.04738 10.443982
2006-07-18 08:15:52 51°19.818 2°37.617 24.6546 0.009133 0.04738 10.443982
2006-07-18 08:15:57 51°19.828 2°37.594 24.6371 0.009133 0.047381 10.443982
2006-07-18 08:16:03 51°19.84 2°37.566 24.6461 0.009133 0.047381 10.443982
2006-07-18 08:16:07 51°19.848 2°37.548 24.6555 0.009133 0.047381 10.443982
2006-07-18 08:16:12 51°19.857 2°37.524 24.6271 0.009133 0.047382 10.443982
2006-07-18 08:16:17 51°19.867 2°37.501 24.6124 0.009133 0.047382 10.410272
2006-07-18 08:16:23 51°19.878 2°37.475 24.6456 0.009133 0.047383 10.443982
2006-07-18 08:16:28 51°19.887 2°37.454 24.6611 0.009133 0.047383 10.410272
2006-07-18 08:16:32 51°19.894 2°37.439 24.6748 0.009133 0.047384 10.443982
2006-07-18 08:16:38 51°19.904 2°37.416 24.6852 0.009133 0.047384 10.443982
2006-07-18 08:16:43 51°19.912 2°37.398 24.6842 0.009133 0.047385 10.410272
2006-07-18 08:16:48 51°19.92 2°37.38 24.6746 0.009133 0.047386 10.410272
2006-07-18 08:16:52 51°19.926 2°37.367 24.6856 0.009133 0.047387 10.410272
2006-07-18 08:16:58 51°19.934 2°37.348 24.7041 0.009133 0.047387 10.443982
2006-07-18 08:17:03 51°19.941 2°37.333 24.6944 0.009133 0.047388 10.410272
2006-07-18 08:17:08 51°19.947 2°37.319 24.7037 0.009133 0.047388 10.410272
2006-07-18 08:17:13 51°19.953 2°37.306 24.711 0.009133 0.047388 10.443982
2006-07-18 08:17:17 51°19.958 2°37.296 24.7143 0.009133 0.047389 10.410272
2006-07-18 08:17:22 51°19.964 2°37.283 24.7082 0.009133 0.04739 10.443982
2006-07-18 08:17:26 51°19.968 2°37.274 24.7144 0.009133 0.04739 10.410272
2006-07-18 08:17:32 51°19.974 2°37.26 24.7019 0.009133 0.047391 10.443982
2006-07-18 08:17:37 51°19.979 2°37.25 24.7154 0.009133 0.047391 10.443982
2006-07-18 08:17:42 51°19.984 2°37.239 24.722 0.009133 0.047391 10.443982
2006-07-18 08:17:48 51°19.989 2°37.228 24.7275 0.009133 0.047392 10.443982
2006-07-18 08:17:52 51°19.992 2°37.221 24.7305 0.009133 0.047392 10.443982
2006-07-18 08:17:58 51°19.996 2°37.211 24.7213 0.009133 0.047393 10.443982
2006-07-18 08:18:03 51°19.998 2°37.203 24.7325 0.009133 0.047393 10.443982
2006-07-18 08:18:08 51°20.001 2°37.197 24.7426 0.009133 0.047393 10.443982
2006-07-18 08:18:13 51°20.002 2°37.192 24.736 0.009133 0.047394 10.443982
2006-07-18 08:18:16 51°20.003 2°37.19 24.7382 0.009133 0.047394 10.410272
2006-07-18 08:18:23 51°20.005 2°37.186 24.7329 0.009133 0.047395 10.443982
2006-07-18 08:18:26 51°20.005 2°37.186 24.7444 0.009133 0.047395 10.410272
2006-07-18 08:18:32 51°20.007 2°37.185 24.6931 0.009133 0.047396 10.410272
2006-07-18 08:18:38 51°20.008 2°37.187 24.7491 0.009133 0.047396 10.410272
2006-07-18 08:18:43 51°20.009 2°37.188 24.7363 0.009133 0.047396 10.410272
2006-07-18 08:18:47 51°20.01 2°37.19 24.7507 0.009133 0.047396 10.443982
2006-07-18 08:18:53 51°20.012 2°37.192 24.7384 0.009133 0.047397 10.410272
2006-07-18 08:18:57 51°20.012 2°37.193 24.7413 0.009133 0.047397 10.410272
2006-07-18 08:19:02 51°20.014 2°37.194 24.7481 0.009133 0.047397 10.443982
2006-07-18 08:19:08 51°20.015 2°37.196 24.7392 0.009133 0.047397 10.443982
2006-07-18 08:19:12 51°20.016 2°37.197 24.7441 0.009133 0.047397 10.410272
2006-07-18 08:19:18 51°20.017 2°37.199 24.7343 0.009133 0.047397 10.410272
2006-07-18 08:19:23 51°20.019 2°37.2 24.7393 0.009133 0.047398 10.410272
2006-07-18 08:19:29 51°20.02 2°37.202 24.7427 0.009133 0.047398 10.410272
2006-07-18 08:19:33 51°20.021 2°37.203 24.7421 0.009133 0.047398 10.443982
2006-07-18 08:19:39 51°20.022 2°37.205 24.7501 0.009133 0.047398 10.443982
2006-07-18 08:19:43 51°20.023 2°37.206 24.7527 0.009133 0.047398 10.443982
2006-07-18 08:19:48 51°20.025 2°37.207 24.7527 0.009133 0.047399 10.443982
2006-07-18 08:19:53 51°20.026 2°37.208 24.7495 0.009133 0.047399 10.410272
2006-07-18 08:19:58 51°20.027 2°37.209 24.7517 0.009133 0.047399 10.443982
2006-07-18 08:20:02 51°20.028 2°37.21 24.7572 0.009133 0.047399 10.443982
2006-07-18 08:20:09 51°20.03 2°37.212 24.7568 0.009133 0.0474 10.443982
2006-07-18 08:20:12 51°20.03 2°37.212 24.7446 0.009133 0.0474 10.410272
2006-07-18 08:20:19 51°20.032 2°37.214 24.7549 0.009133 0.0474 10.443982
2006-07-18 08:20:24 51°20.033 2°37.215 24.7675 0.009133 0.0474 10.443982
2006-07-18 08:20:29 51°20.034 2°37.216 24.7683 0.009133 0.0474 10.443982
2006-07-18 08:20:33 51°20.035 2°37.217 24.7552 0.009133 0.0474 10.410272
2006-07-18 08:20:37 51°20.036 2°37.218 24.7672 0.009133 0.0474 10.410272
2006-07-18 08:20:43 51°20.037 2°37.219 24.7408 0.009133 0.0474 10.477691
2006-07-18 08:20:48 51°20.038 2°37.22 24.7575 0.009133 0.0474 10.410272
2006-07-18 08:20:53 51°20.039 2°37.221 24.7691 0.009133 0.047401 10.443982
2006-07-18 08:20:57 51°20.04 2°37.222 24.7712 0.009133 0.0474 10.410272
2006-07-18 08:21:03 51°20.041 2°37.223 24.7617 0.009133 0.0474 10.443982
2006-07-18 08:21:08 51°20.043 2°37.224 24.7498 0.009133 0.0474 10.443982
2006-07-18 08:21:13 51°20.043 2°37.225 24.7459 0.009133 0.0474 10.410272
2006-07-18 08:21:16 51°20.044 2°37.225 24.7652 0.009133 0.0474 10.410272
2006-07-18 08:21:23 51°20.045 2°37.227 24.7591 0.009133 0.0474 10.443982
2006-07-18 08:21:28 51°20.046 2°37.227 24.7527 0.009133 0.0474 10.410272
2006-07-18 08:21:33 51°20.047 2°37.228 24.7658 0.009133 0.0474 10.443982
2006-07-18 08:21:36 51°20.047 2°37.228 24.7784 0.009133 0.0474 10.443982
2006-07-18 08:21:42 51°20.048 2°37.229 24.7718 0.009133 0.0474 10.443982
2006-07-18 08:21:47 51°20.049 2°37.229 24.7658 0.009133 0.0474 10.410272
2006-07-18 08:21:53 51°20.05 2°37.23 24.7665 0.009133 0.0474 10.410272
2006-07-18 08:21:57 51°20.05 2°37.23 24.7883 0.009133 0.0474 10.443982
2006-07-18 08:22:02 51°20.051 2°37.23 24.7847 0.009133 0.0474 10.443982
2006-07-18 08:22:08 51°20.051 2°37.231 24.7759 0.009133 0.0474 10.443982
2006-07-18 08:22:13 51°20.052 2°37.231 24.7829 0.009133 0.047398 10.410272
2006-07-18 08:22:16 51°20.052 2°37.231 24.7845 0.009133 0.047398 10.410272
2006-07-18 08:22:23 51°20.052 2°37.231 24.7918 0.009133 0.047398 10.410272
2006-07-18 08:22:28 51°20.052 2°37.231 24.7876 0.009133 0.047399 10.443982
2006-07-18 08:22:33 51°20.052 2°37.23 24.7899 0.009133 0.047399 10.443982
2006-07-18 08:22:38 51°20.052 2°37.23 24.789 0.009133 0.047399 10.443982
2006-07-18 08:22:43 51°20.052 2°37.23 24.7824 0.009133 0.047398 10.410272
2006-07-18 08:22:47 51°20.052 2°37.23 24.783 0.009133 0.047399 10.443982
2006-07-18 08:22:52 51°20.052 2°37.229 24.7893 0.009133 0.047399 10.410272
2006-07-18 08:22:58 51°20.052 2°37.229 24.7911 0.009133 0.0474 10.443982
2006-07-18 08:23:03 51°20.052 2°37.228 24.7789 0.009133 0.047399 10.410272
2006-07-18 08:23:07 51°20.052 2°37.228 24.7875 0.009133 0.047399 10.410272
2006-07-18 08:23:12 51°20.052 2°37.227 24.7885 0.009133 0.047398 10.410272
2006-07-18 08:23:17 51°20.051 2°37.227 24.8029 0.009133 0.047398 10.443982
2006-07-18 08:23:23 51°20.051 2°37.227 24.7924 0.009133 0.047398 10.410272
2006-07-18 08:23:27 51°20.051 2°37.227 24.796 0.009133 0.047398 10.443982
2006-07-18 08:23:33 51°20.05 2°37.226 24.7727 0.009133 0.047398 10.443982
2006-07-18 08:23:38 51°20.05 2°37.226 24.7828 0.009133 0.047398 10.410272
2006-07-18 08:23:43 51°20.05 2°37.225 24.7806 0.009133 0.047397 10.443982
2006-07-18 08:23:48 51°20.05 2°37.225 24.8045 0.009133 0.047397 10.443982
2006-07-18 08:23:52 51°20.049 2°37.225 24.7925 0.009133 0.047397 10.443982
2006-07-18 08:23:56 51°20.049 2°37.225 24.7873 0.009133 0.047397 10.443982
2006-07-18 08:24:02 51°20.049 2°37.225 24.797 0.009133 0.047396 10.410272
2006-07-18 08:24:08 51°20.048 2°37.224 24.7937 0.009133 0.047396 10.410272
2006-07-18 08:24:13 51°20.048 2°37.225 24.7947 0.009133 0.047395 10.443982
2006-07-18 08:24:18 51°20.048 2°37.224 24.8015 0.009133 0.047395 10.443982
2006-07-18 08:24:23 51°20.047 2°37.225 24.7776 0.009133 0.047395 10.443982
2006-07-18 08:24:28 51°20.047 2°37.224 24.7977 0.009133 0.047395 10.443982
2006-07-18 08:24:33 51°20.047 2°37.225 24.8024 0.009133 0.047394 10.410272
2006-07-18 08:24:38 51°20.046 2°37.225 24.7893 0.009133 0.047394 10.410272
2006-07-18 08:24:42 51°20.046 2°37.225 24.7968 0.009133 0.047394 10.443982
2006-07-18 08:24:48 51°20.046 2°37.225 24.8007 0.009133 0.047394 10.443982
2006-07-18 08:24:52 51°20.046 2°37.225 24.7997 0.009133 0.047393 10.443982
2006-07-18 08:24:58 51°20.045 2°37.225 24.8174 0.009133 0.047393 10.443982
2006-07-18 08:25:03 51°20.045 2°37.225 24.797 0.009133 0.047393 10.443982
2006-07-18 08:25:07 51°20.045 2°37.225 24.7953 0.009133 0.047393 10.443982
2006-07-18 08:25:12 51°20.045 2°37.225 24.8109 0.009133 0.047392 10.443982
2006-07-18 08:25:17 51°20.045 2°37.225 24.8179 0.009133 0.047392 10.410272
2006-07-18 08:25:22 51°20.044 2°37.225 24.8118 0.009133 0.047392 10.410272
2006-07-18 08:25:28 51°20.044 2°37.225 24.7974 0.009133 0.047391 10.410272
2006-07-18 08:25:33 51°20.044 2°37.225 24.7785 0.009133 0.047391 10.410272
2006-07-18 08:25:37 51°20.044 2°37.225 24.7953 0.009133 0.047391 10.410272
2006-07-18 08:25:41 51°20.044 2°37.225 24.8055 0.009133 0.04739 10.410272
2006-07-18 08:25:47 51°20.044 2°37.225 24.793 0.009133 0.04739 10.443982
2006-07-18 08:25:52 51°20.044 2°37.225 24.8159 0.009133 0.04739 10.410272
2006-07-18 08:25:57 51°20.044 2°37.225 24.8202 0.009133 0.047389 10.443982
2006-07-18 08:26:02 51°20.044 2°37.225 24.7944 0.009133 0.047389 10.443982
2006-07-18 08:26:07 51°20.044 2°37.225 24.8059 0.009133 0.047389 10.443982
2006-07-18 08:26:13 51°20.044 2°37.225 24.802 0.009133 0.047388 10.443982
2006-07-18 08:26:17 51°20.044 2°37.225 24.8086 0.009133 0.047388 10.410272
2006-07-18 08:26:23 51°20.043 2°37.225 24.8104 0.009133 0.047388 10.443982
2006-07-18 08:26:28 51°20.043 2°37.225 24.8181 0.009133 0.047388 10.410272